Observation data for Rotan on 11/16/2019      Previous  Date       Current Mesonet Observations  Soil Data  Daily Summary Page  Observations in Plain Language
KRO1 160600Z 18007KT 06/00 A3021 RMK A01 T005600-0  RH  067%=      5-min Rain = 0
KRO1 160601Z 18007KT 06/00 A3021 RMK A01 T005600-0  RH  067%=      5-min Rain = 0
KRO1 160602Z 18007KT 06/00 A3021 RMK A01 T00560000  RH  067%=      5-min Rain = 0
KRO1 160603Z 18007KT 06/00 A3021 RMK A01 T005600-0  RH  067%=      5-min Rain = 0
KRO1 160604Z 18007KT 06/00 A3021 RMK A01 T00560000  RH  067%=      5-min Rain = 0
KRO1 160605Z 18007KT 06/00 A3021 RMK A01 T005600-0  RH  067%=      5-min Rain = 0
KRO1 160606Z 18007KT 06/00 A3021 RMK A01 T005500-0  RH  067%=      5-min Rain = 0
KRO1 160607Z 18007KT 06/00 A3021 RMK A01 T005600-0  RH  067%=      5-min Rain = 0
KRO1 160608Z 18006KT 06/00 A3021 RMK A01 T005600-0  RH  067%=      5-min Rain = 0
KRO1 160609Z 18007KT 06/M00 A3021 RMK A01 T00551001  RH  067%=      5-min Rain = 0
KRO1 160610Z 18006KT 06/M00 A3021 RMK A01 T00551001  RH  067%=      5-min Rain = 0
KRO1 160611Z 18006KT 06/M00 A3021 RMK A01 T00551001  RH  067%=      5-min Rain = 0
KRO1 160612Z 18007KT 06/M00 A3021 RMK A01 T00551001  RH  067%=      5-min Rain = 0
KRO1 160613Z 18006KT 05/M00 A3021 RMK A01 T00541001  RH  068%=      5-min Rain = 0
KRO1 160614Z 18007KT 05/00 A3021 RMK A01 T005400-0  RH  068%=      5-min Rain = 0
KRO1 160615Z 18007KT 05/M00 A3021 RMK A01 T00541001  RH  068%=      5-min Rain = 0
KRO1 160616Z 18007KT 05/00 A3021 RMK A01 T005300-0  RH  068%=      5-min Rain = 0
KRO1 160617Z 18007KT 05/00 A3021 RMK A01 T005300-0  RH  068%=      5-min Rain = 0
KRO1 160618Z 17007KT 05/00 A302 RMK A01 T005300-0  RH  069%=      5-min Rain = 0
KRO1 160619Z 17007KT 05/00 A302 RMK A01 T005200-0  RH  069%=      5-min Rain = 0
KRO1 160620Z 17008KT 05/00 A302 RMK A01 T005200-0  RH  069%=      5-min Rain = 0
KRO1 160621Z 17008KT 05/00 A302 RMK A01 T005200-0  RH  069%=      5-min Rain = 0
KRO1 160622Z 17008KT 05/00 A302 RMK A01 T00530000  RH  069%=      5-min Rain = 0
KRO1 160623Z 17008KT 05/00 A302 RMK A01 T00530000  RH  069%=      5-min Rain = 0
KRO1 160624Z 17008KT 05/00 A302 RMK A01 T00540000  RH  068%=      5-min Rain = 0
KRO1 160625Z 17008KT 06/00 A302 RMK A01 T00550000  RH  068%=      5-min Rain = 0
KRO1 160626Z 17007KT 06/00 A302 RMK A01 T00550000  RH  068%=      5-min Rain = 0
KRO1 160627Z 17008KT 06/00 A302 RMK A01 T00560001  RH  067%=      5-min Rain = 0
KRO1 160628Z 17008KT 06/00 A302 RMK A01 T00560000  RH  067%=      5-min Rain = 0
KRO1 160629Z 17008KT 06/00 A302 RMK A01 T00570000  RH  067%=      5-min Rain = 0
KRO1 160630Z 17008KT 06/00 A302 RMK A01 T00570001  RH  067%=      5-min Rain = 0
KRO1 160631Z 17008KT 06/00 A302 RMK A01 T00580001  RH  067%=      5-min Rain = 0
KRO1 160632Z 17008KT 06/00 A302 RMK A01 T00580000  RH  067%=      5-min Rain = 0
KRO1 160633Z 17008KT 06/00 A302 RMK A01 T00580001  RH  066%=      5-min Rain = 0
KRO1 160634Z 17008KT 06/00 A302 RMK A01 T00590000  RH  066%=      5-min Rain = 0
KRO1 160635Z 17008KT 06/00 A302 RMK A01 T00590000  RH  066%=      5-min Rain = 0
KRO1 160636Z 17008KT 06/00 A302 RMK A01 T00590001  RH  066%=      5-min Rain = 0
KRO1 160637Z 17008KT 06/00 A302 RMK A01 T00590000  RH  066%=      5-min Rain = 0
KRO1 160638Z 17008KT 06/00 A302 RMK A01 T00590000  RH  066%=      5-min Rain = 0
KRO1 160639Z 17008KT 06/00 A302 RMK A01 T006000-0  RH  066%=      5-min Rain = 0
KRO1 160640Z 17008KT 06/00 A302 RMK A01 T00600000  RH  065%=      5-min Rain = 0
KRO1 160641Z 17007KT 06/00 A302 RMK A01 T00600000  RH  065%=      5-min Rain = 0
KRO1 160642Z 17007KT 06/00 A302 RMK A01 T006000-0  RH  065%=      5-min Rain = 0
KRO1 160643Z 17007KT 06/00 A302 RMK A01 T00600000  RH  065%=      5-min Rain = 0
KRO1 160644Z 17007KT 06/00 A302 RMK A01 T00600000  RH  065%=      5-min Rain = 0
KRO1 160645Z 17007KT 06/00 A302 RMK A01 T00600001  RH  066%=      5-min Rain = 0
KRO1 160646Z 17007KT 06/00 A302 RMK A01 T00590001  RH  066%=      5-min Rain = 0
KRO1 160647Z 17007KT 06/00 A302 RMK A01 T00590001  RH  066%=      5-min Rain = 0
KRO1 160648Z 17007KT 06/00 A302 RMK A01 T00590001  RH  066%=      5-min Rain = 0
KRO1 160649Z 18006KT 06/00 A302 RMK A01 T00580001  RH  067%=      5-min Rain = 0
KRO1 160650Z 17006KT 06/00 A302 RMK A01 T00580000  RH  067%=      5-min Rain = 0
KRO1 160651Z 17006KT 06/00 A302 RMK A01 T00570000  RH  067%=      5-min Rain = 0
KRO1 160652Z 18006KT 06/00 A302 RMK A01 T00560000  RH  067%=      5-min Rain = 0
KRO1 160653Z 17006KT 06/00 A302 RMK A01 T00560000  RH  068%=      5-min Rain = 0
KRO1 160654Z 17006KT 06/00 A302 RMK A01 T00550000  RH  068%=      5-min Rain = 0
KRO1 160655Z 17006KT 06/00 A302 RMK A01 T00550001  RH  068%=      5-min Rain = 0
KRO1 160656Z 17006KT 06/00 A302 RMK A01 T00550001  RH  068%=      5-min Rain = 0
KRO1 160657Z 17007KT 06/00 A302 RMK A01 T00550001  RH  068%=      5-min Rain = 0
KRO1 160658Z 17006KT 06/00 A302 RMK A01 T00550000  RH  068%=      5-min Rain = 0
KRO1 160659Z 17007KT 06/00 A302 RMK A01 T00550001  RH  068%=      5-min Rain = 0
KRO1 160700Z 17006KT 06/00 A302 RMK A01 T00550001  RH  068%=      5-min Rain = 0
KRO1 160701Z 17006KT 06/00 A302 RMK A01 T00550001  RH  068%=      5-min Rain = 0
KRO1 160702Z 17007KT 06/00 A302 RMK A01 T00560001  RH  068%=      5-min Rain = 0
KRO1 160703Z 17006KT 06/00 A302 RMK A01 T00550001  RH  068%=      5-min Rain = 0
KRO1 160704Z 17006KT 06/00 A302 RMK A01 T00560001  RH  068%=      5-min Rain = 0
KRO1 160705Z 17006KT 06/00 A302 RMK A01 T00550001  RH  068%=      5-min Rain = 0
KRO1 160706Z 17006KT 06/00 A3019 RMK A01 T00550001  RH  068%=      5-min Rain = 0
KRO1 160707Z 17006KT 06/00 A3019 RMK A01 T00550001  RH  068%=      5-min Rain = 0
KRO1 160708Z 17006KT 06/00 A3019 RMK A01 T00550002  RH  068%=      5-min Rain = 0
KRO1 160709Z 17006KT 06/00 A3019 RMK A01 T00550001  RH  068%=      5-min Rain = 0
KRO1 160710Z 17006KT 06/00 A3019 RMK A01 T00550002  RH  069%=      5-min Rain = 0
KRO1 160711Z 17006KT 05/00 A3019 RMK A01 T00540002  RH  069%=      5-min Rain = 0
KRO1 160712Z 17005KT 05/00 A3019 RMK A01 T00540002  RH  069%=      5-min Rain = 0
KRO1 160713Z 17006KT 05/00 A3019 RMK A01 T00540002  RH  069%=      5-min Rain = 0
KRO1 160714Z 17006KT 05/00 A3019 RMK A01 T00540002  RH  069%=      5-min Rain = 0
KRO1 160715Z 17006KT 05/00 A3019 RMK A01 T00530001  RH  069%=      5-min Rain = 0
KRO1 160716Z 17005KT 05/00 A3019 RMK A01 T00530001  RH  069%=      5-min Rain = 0
KRO1 160717Z 17005KT 05/00 A3019 RMK A01 T00530001  RH  069%=      5-min Rain = 0
KRO1 160718Z 17005KT 05/00 A3019 RMK A01 T00530001  RH  069%=      5-min Rain = 0
KRO1 160719Z 17005KT 05/00 A3019 RMK A01 T00530001  RH  069%=      5-min Rain = 0
KRO1 160720Z 17005KT 05/00 A3019 RMK A01 T00530001  RH  069%=      5-min Rain = 0
KRO1 160721Z 17005KT 05/00 A3019 RMK A01 T00530001  RH  069%=      5-min Rain = 0
KRO1 160722Z 17005KT 05/00 A3019 RMK A01 T00530001  RH  069%=      5-min Rain = 0
KRO1 160723Z 18006KT 05/00 A3019 RMK A01 T00530001  RH  069%=      5-min Rain = 0
KRO1 160724Z 18006KT 05/00 A3019 RMK A01 T00530001  RH  069%=      5-min Rain = 0
KRO1 160725Z 18006KT 05/00 A3019 RMK A01 T00530001  RH  069%=      5-min Rain = 0
KRO1 160726Z 18006KT 05/00 A3019 RMK A01 T00520000  RH  069%=      5-min Rain = 0
KRO1 160727Z 18005KT 05/00 A3019 RMK A01 T00530001  RH  069%=      5-min Rain = 0
KRO1 160728Z 18005KT 05/00 A3019 RMK A01 T005200-0  RH  069%=      5-min Rain = 0
KRO1 160729Z 18005KT 05/00 A3019 RMK A01 T005300-0  RH  069%=      5-min Rain = 0
KRO1 160730Z 18005KT 05/00 A3019 RMK A01 T005300-0  RH  068%=      5-min Rain = 0
KRO1 160731Z 18005KT 05/M00 A3019 RMK A01 T00531001  RH  068%=      5-min Rain = 0
KRO1 160732Z 18005KT 05/M00 A3019 RMK A01 T00541001  RH  068%=      5-min Rain = 0
KRO1 160733Z 18005KT 05/M00 A3019 RMK A01 T00541001  RH  068%=      5-min Rain = 0
KRO1 160734Z 18004KT 05/M00 A3019 RMK A01 T00541001  RH  068%=      5-min Rain = 0
KRO1 160735Z 18004KT 05/M00 A3019 RMK A01 T00541001  RH  068%=      5-min Rain = 0
KRO1 160736Z 18004KT 05/M00 A3019 RMK A01 T00541001  RH  068%=      5-min Rain = 0
KRO1 160737Z 18004KT 05/M00 A3019 RMK A01 T00531001  RH  068%=      5-min Rain = 0
KRO1 160738Z 18004KT 05/M00 A3019 RMK A01 T00531001  RH  068%=      5-min Rain = 0
KRO1 160739Z 18004KT 05/M00 A3019 RMK A01 T00521001  RH  068%=      5-min Rain = 0
KRO1 160740Z 18004KT 05/M00 A3019 RMK A01 T00521002  RH  068%=      5-min Rain = 0
KRO1 160741Z 18004KT 05/M00 A3019 RMK A01 T00521001  RH  068%=      5-min Rain = 0
KRO1 160742Z 18004KT 05/M00 A3019 RMK A01 T00521001  RH  068%=      5-min Rain = 0
KRO1 160743Z 18004KT 05/M00 A3019 RMK A01 T00521001  RH  068%=      5-min Rain = 0
KRO1 160744Z 18004KT 05/M00 A3019 RMK A01 T00521002  RH  068%=      5-min Rain = 0
KRO1 160745Z 18004KT 05/M00 A3019 RMK A01 T00521002  RH  068%=      5-min Rain = 0
KRO1 160746Z 17004KT 05/M00 A3019 RMK A01 T00521002  RH  068%=      5-min Rain = 0
KRO1 160747Z 17004KT 05/M00 A3019 RMK A01 T00521002  RH  068%=      5-min Rain = 0
KRO1 160748Z 17003KT 05/M00 A3019 RMK A01 T00521001  RH  068%=      5-min Rain = 0
KRO1 160749Z 17004KT 05/M00 A3019 RMK A01 T00521002  RH  068%=      5-min Rain = 0
KRO1 160750Z 17003KT 05/M00 A3019 RMK A01 T00521002  RH  069%=      5-min Rain = 0
KRO1 160751Z 17004KT 05/M00 A3019 RMK A01 T00511002  RH  069%=      5-min Rain = 0
KRO1 160752Z 18004KT 05/M00 A3019 RMK A01 T00511002  RH  069%=      5-min Rain = 0
KRO1 160753Z 18004KT 05/M00 A3019 RMK A01 T00501002  RH  069%=      5-min Rain = 0
KRO1 160754Z 18004KT 05/M00 A3019 RMK A01 T00501002  RH  069%=      5-min Rain = 0
KRO1 160755Z 18004KT 05/M00 A3019 RMK A01 T00491002  RH  070%=      5-min Rain = 0
KRO1 160756Z 18004KT 05/M00 A3019 RMK A01 T00491002  RH  070%=      5-min Rain = 0
KRO1 160757Z 18004KT 05/M00 A3019 RMK A01 T00491002  RH  070%=      5-min Rain = 0
KRO1 160758Z 18004KT 05/M00 A3018 RMK A01 T00481002  RH  070%=      5-min Rain = 0
KRO1 160759Z 18004KT 05/M00 A3018 RMK A01 T00481002  RH  070%=      5-min Rain = 0
KRO1 160800Z 18004KT 05/M00 A3018 RMK A01 T00481002  RH  070%=      5-min Rain = 0
KRO1 160801Z 18004KT 05/M00 A3018 RMK A01 T00471002  RH  070%=      5-min Rain = 0
KRO1 160802Z 18004KT 05/M00 A3018 RMK A01 T00471002  RH  071%=      5-min Rain = 0
KRO1 160803Z 17004KT 05/M00 A3018 RMK A01 T00471001  RH  071%=      5-min Rain = 0
KRO1 160804Z 17004KT 05/M00 A3018 RMK A01 T00461001  RH  071%=      5-min Rain = 0
KRO1 160805Z 17004KT 05/M00 A3018 RMK A01 T00471001  RH  071%=      5-min Rain = 0
KRO1 160806Z 17004KT 05/M00 A3018 RMK A01 T00461001  RH  071%=      5-min Rain = 0
KRO1 160807Z 18003KT 05/M00 A3018 RMK A01 T00461001  RH  072%=      5-min Rain = 0
KRO1 160808Z 17003KT 05/M00 A3018 RMK A01 T00461001  RH  072%=      5-min Rain = 0
KRO1 160809Z 17004KT 05/00 A3018 RMK A01 T004600-0  RH  072%=      5-min Rain = 0
KRO1 160810Z 18004KT 05/M00 A3018 RMK A01 T00451001  RH  072%=      5-min Rain = 0
KRO1 160811Z 18004KT 05/00 A3018 RMK A01 T004500-0  RH  072%=      5-min Rain = 0
KRO1 160812Z 18004KT 05/00 A3018 RMK A01 T004500-0  RH  072%=      5-min Rain = 0
KRO1 160813Z 18004KT 05/00 A3018 RMK A01 T004500-0  RH  072%=      5-min Rain = 0
KRO1 160814Z 18004KT 05/00 A3018 RMK A01 T004500-0  RH  072%=      5-min Rain = 0
KRO1 160815Z 18004KT 05/00 A3018 RMK A01 T004500-0  RH  073%=      5-min Rain = 0
KRO1 160816Z 18004KT 04/00 A3018 RMK A01 T004400-0  RH  073%=      5-min Rain = 0
KRO1 160817Z 18004KT 04/00 A3018 RMK A01 T004400-0  RH  073%=      5-min Rain = 0
KRO1 160818Z 18004KT 04/M00 A3018 RMK A01 T00441001  RH  073%=      5-min Rain = 0
KRO1 160819Z 18004KT 04/M00 A3018 RMK A01 T00441001  RH  073%=      5-min Rain = 0
KRO1 160820Z 18004KT 04/M00 A3018 RMK A01 T00441001  RH  072%=      5-min Rain = 0
KRO1 160821Z 18004KT 04/M00 A3018 RMK A01 T00441001  RH  072%=      5-min Rain = 0
KRO1 160822Z 17004KT 04/M00 A3018 RMK A01 T00441001  RH  072%=      5-min Rain = 0
KRO1 160823Z 18005KT 05/M00 A3018 RMK A01 T00451001  RH  072%=      5-min Rain = 0
KRO1 160824Z 18004KT 05/M00 A3018 RMK A01 T00451001  RH  072%=      5-min Rain = 0
KRO1 160825Z 17004KT 05/M00 A3018 RMK A01 T00451001  RH  072%=      5-min Rain = 0
KRO1 160826Z 17005KT 05/M00 A3018 RMK A01 T00451001  RH  072%=      5-min Rain = 0
KRO1 160827Z 18004KT 05/M00 A3018 RMK A01 T00451001  RH  072%=      5-min Rain = 0
KRO1 160828Z 18004KT 05/M00 A3018 RMK A01 T00451002  RH  072%=      5-min Rain = 0
KRO1 160829Z 18004KT 05/M00 A3018 RMK A01 T00451001  RH  072%=      5-min Rain = 0
KRO1 160830Z 18004KT 04/M00 A3018 RMK A01 T00441001  RH  072%=      5-min Rain = 0
KRO1 160831Z 18004KT 04/M00 A3018 RMK A01 T00441001  RH  073%=      5-min Rain = 0
KRO1 160832Z 18004KT 04/M00 A3018 RMK A01 T00441001  RH  073%=      5-min Rain = 0
KRO1 160833Z 18004KT 04/M00 A3018 RMK A01 T00441001  RH  073%=      5-min Rain = 0
KRO1 160834Z 17005KT 04/M00 A3018 RMK A01 T00441001  RH  073%=      5-min Rain = 0
KRO1 160835Z 17004KT 04/M00 A3017 RMK A01 T00441001  RH  073%=      5-min Rain = 0
KRO1 160836Z 17004KT 04/M00 A3017 RMK A01 T00441001  RH  072%=      5-min Rain = 0
KRO1 160837Z 17004KT 04/M00 A3017 RMK A01 T00441001  RH  072%=      5-min Rain = 0
KRO1 160838Z 17004KT 04/M00 A3017 RMK A01 T00441001  RH  072%=      5-min Rain = 0
KRO1 160839Z 18004KT 04/M00 A3017 RMK A01 T00441001  RH  072%=      5-min Rain = 0
KRO1 160840Z 18004KT 04/M00 A3017 RMK A01 T00431002  RH  073%=      5-min Rain = 0
KRO1 160841Z 17003KT 04/M00 A3017 RMK A01 T00431002  RH  073%=      5-min Rain = 0
KRO1 160842Z 18003KT 04/M00 A3017 RMK A01 T00431001  RH  073%=      5-min Rain = 0
KRO1 160843Z 17003KT 04/M00 A3017 RMK A01 T00431002  RH  073%=      5-min Rain = 0
KRO1 160844Z 17004KT 04/M00 A3017 RMK A01 T00431002  RH  073%=      5-min Rain = 0
KRO1 160845Z 17003KT 04/M00 A3017 RMK A01 T00431002  RH  073%=      5-min Rain = 0
KRO1 160846Z 17003KT 04/M00 A3017 RMK A01 T00431002  RH  073%=      5-min Rain = 0
KRO1 160847Z 17003KT 04/M00 A3017 RMK A01 T00431002  RH  073%=      5-min Rain = 0
KRO1 160848Z 17003KT 04/M00 A3017 RMK A01 T00431001  RH  073%=      5-min Rain = 0
KRO1 160849Z 17003KT 04/M00 A3017 RMK A01 T00431001  RH  073%=      5-min Rain = 0
KRO1 160850Z 17003KT 04/M00 A3017 RMK A01 T00431001  RH  073%=      5-min Rain = 0
KRO1 160851Z 17004KT 04/M00 A3017 RMK A01 T00431001  RH  073%=      5-min Rain = 0
KRO1 160852Z 17003KT 04/M00 A3017 RMK A01 T00431001  RH  073%=      5-min Rain = 0
KRO1 160853Z 16003KT 04/M00 A3017 RMK A01 T00431001  RH  073%=      5-min Rain = 0
KRO1 160854Z 16004KT 04/M00 A3017 RMK A01 T00431001  RH  073%=      5-min Rain = 0
KRO1 160855Z 16003KT 04/M00 A3017 RMK A01 T00431001  RH  073%=      5-min Rain = 0
KRO1 160856Z 16003KT 04/M00 A3017 RMK A01 T00431001  RH  073%=      5-min Rain = 0
KRO1 160857Z 16003KT 04/M00 A3017 RMK A01 T00431001  RH  073%=      5-min Rain = 0
KRO1 160858Z 16003KT 04/M00 A3017 RMK A01 T00431001  RH  073%=      5-min Rain = 0
KRO1 160859Z 16003KT 04/M00 A3017 RMK A01 T00431001  RH  073%=      5-min Rain = 0
KRO1 160900Z 15002KT 04/M00 A3017 RMK A01 T00431001  RH  073%=      5-min Rain = 0
KRO1 160901Z 16002KT 04/M00 A3017 RMK A01 T00421002  RH  073%=      5-min Rain = 0
KRO1 160902Z 16002KT 04/M00 A3017 RMK A01 T00421002  RH  073%=      5-min Rain = 0
KRO1 160903Z 15003KT 04/M00 A3017 RMK A01 T00411002  RH  074%=      5-min Rain = 0
KRO1 160904Z 15002KT 04/M00 A3017 RMK A01 T00411002  RH  074%=      5-min Rain = 0
KRO1 160905Z 15002KT 04/M00 A3017 RMK A01 T00411001  RH  074%=      5-min Rain = 0
KRO1 160906Z 15002KT 04/M00 A3017 RMK A01 T00411001  RH  074%=      5-min Rain = 0
KRO1 160907Z 16002KT 04/M00 A3017 RMK A01 T00401001  RH  074%=      5-min Rain = 0
KRO1 160908Z 16002KT 04/M00 A3017 RMK A01 T00401001  RH  074%=      5-min Rain = 0
KRO1 160909Z 15001KT 04/M00 A3017 RMK A01 T00411001  RH  074%=      5-min Rain = 0
KRO1 160910Z 15001KT 04/M00 A3017 RMK A01 T00411001  RH  074%=      5-min Rain = 0
KRO1 160911Z 14002KT 04/M00 A3017 RMK A01 T00411001  RH  074%=      5-min Rain = 0
KRO1 160912Z 14002KT 04/M00 A3017 RMK A01 T00411001  RH  074%=      5-min Rain = 0
KRO1 160913Z 14002KT 04/M00 A3017 RMK A01 T00421001  RH  074%=      5-min Rain = 0
KRO1 160914Z 14002KT 04/M00 A3017 RMK A01 T00411001  RH  074%=      5-min Rain = 0
KRO1 160915Z 15002KT 04/M00 A3017 RMK A01 T00421002  RH  073%=      5-min Rain = 0
KRO1 160916Z 14001KT 04/M00 A3017 RMK A01 T00421002  RH  073%=      5-min Rain = 0
KRO1 160917Z 14001KT 04/M00 A3017 RMK A01 T00421002  RH  073%=      5-min Rain = 0
KRO1 160918Z 15001KT 04/M00 A3017 RMK A01 T00421001  RH  073%=      5-min Rain = 0
KRO1 160919Z 14002KT 04/M00 A3017 RMK A01 T00421002  RH  073%=      5-min Rain = 0
KRO1 160920Z 14001KT 04/M00 A3017 RMK A01 T00431001  RH  073%=      5-min Rain = 0
KRO1 160921Z 14002KT 04/M00 A3017 RMK A01 T00431002  RH  073%=      5-min Rain = 0
KRO1 160922Z 14002KT 04/M00 A3017 RMK A01 T00431002  RH  073%=      5-min Rain = 0
KRO1 160923Z 14002KT 04/M00 A3017 RMK A01 T00431002  RH  072%=      5-min Rain = 0
KRO1 160924Z 14002KT 04/M00 A3017 RMK A01 T00441002  RH  072%=      5-min Rain = 0
KRO1 160925Z 15001KT 04/M00 A3017 RMK A01 T00441002  RH  072%=      5-min Rain = 0
KRO1 160926Z 15001KT 04/M00 A3017 RMK A01 T00441003  RH  072%=      5-min Rain = 0
KRO1 160927Z 14002KT 05/M00 A3017 RMK A01 T00451002  RH  071%=      5-min Rain = 0
KRO1 160928Z 14002KT 05/M00 A3017 RMK A01 T00451003  RH  071%=      5-min Rain = 0
KRO1 160929Z 14002KT 05/M00 A3017 RMK A01 T00451003  RH  071%=      5-min Rain = 0
KRO1 160930Z 14002KT 05/M00 A3017 RMK A01 T00461003  RH  070%=      5-min Rain = 0
KRO1 160931Z 13002KT 05/M00 A3017 RMK A01 T00471003  RH  070%=      5-min Rain = 0
KRO1 160932Z 14001KT 05/M00 A3017 RMK A01 T00471003  RH  070%=      5-min Rain = 0
KRO1 160933Z 14001KT 05/M00 A3017 RMK A01 T00471003  RH  070%=      5-min Rain = 0
KRO1 160934Z 14001KT 05/M00 A3017 RMK A01 T00471002  RH  070%=      5-min Rain = 0
KRO1 160935Z 13000KT 05/M00 A3017 RMK A01 T00461003  RH  070%=      5-min Rain = 0
KRO1 160936Z 13000KT 05/M00 A3017 RMK A01 T00471003  RH  070%=      5-min Rain = 0
KRO1 160937Z 13000KT 05/M00 A3017 RMK A01 T00461003  RH  071%=      5-min Rain = 0
KRO1 160938Z 00000KT 05/M00 A3017 RMK A01 T00461003  RH  071%=      5-min Rain = 0
KRO1 160939Z 00000KT 05/M00 A3017 RMK A01 T00451003  RH  071%=      5-min Rain = 0
KRO1 160940Z 13000KT 05/M00 A3017 RMK A01 T00451003  RH  071%=      5-min Rain = 0
KRO1 160941Z 13000KT 05/M00 A3017 RMK A01 T00451003  RH  071%=      5-min Rain = 0
KRO1 160942Z 12001KT 05/M00 A3017 RMK A01 T00451003  RH  071%=      5-min Rain = 0
KRO1 160943Z 12001KT 05/M00 A3017 RMK A01 T00451003  RH  071%=      5-min Rain = 0
KRO1 160944Z 11001KT 05/M00 A3017 RMK A01 T00451003  RH  071%=      5-min Rain = 0
KRO1 160945Z 12001KT 05/M00 A3017 RMK A01 T00451003  RH  071%=      5-min Rain = 0
KRO1 160946Z 12001KT 05/M00 A3017 RMK A01 T00451003  RH  071%=      5-min Rain = 0
KRO1 160947Z 13001KT 05/M00 A3017 RMK A01 T00451003  RH  071%=      5-min Rain = 0
KRO1 160948Z 13002KT 05/M00 A3017 RMK A01 T00451003  RH  071%=      5-min Rain = 0
KRO1 160949Z 13002KT 05/M00 A3017 RMK A01 T00451003  RH  071%=      5-min Rain = 0
KRO1 160950Z 13002KT 05/M00 A3017 RMK A01 T00451004  RH  071%=      5-min Rain = 0
KRO1 160951Z 14002KT 05/M00 A3017 RMK A01 T00451003  RH  071%=      5-min Rain = 0
KRO1 160952Z 14002KT 05/M00 A3017 RMK A01 T00451004  RH  071%=      5-min Rain = 0
KRO1 160953Z 14002KT 05/M00 A3017 RMK A01 T00451004  RH  071%=      5-min Rain = 0
KRO1 160954Z 14002KT 05/M00 A3017 RMK A01 T00451004  RH  071%=      5-min Rain = 0
KRO1 160955Z 14002KT 04/M00 A3017 RMK A01 T00441004  RH  071%=      5-min Rain = 0
KRO1 160956Z 14002KT 04/M00 A3017 RMK A01 T00441004  RH  071%=      5-min Rain = 0
KRO1 160957Z 14001KT 04/M00 A3017 RMK A01 T00441004  RH  071%=      5-min Rain = 0
KRO1 160958Z 14001KT 04/M00 A3017 RMK A01 T00431004  RH  071%=      5-min Rain = 0
KRO1 160959Z 14001KT 04/M00 A3017 RMK A01 T00421003  RH  072%=      5-min Rain = 0
KRO1 161000Z 14001KT 04/M00 A3017 RMK A01 T00411003  RH  073%=      5-min Rain = 0
KRO1 161001Z 14001KT 04/M00 A3017 RMK A01 T00401003  RH  073%=      5-min Rain = 0
KRO1 161002Z 14001KT 04/M00 A3017 RMK A01 T00401003  RH  074%=      5-min Rain = 0
KRO1 161003Z 14001KT 04/M00 A3017 RMK A01 T00391003  RH  074%=      5-min Rain = 0
KRO1 161004Z 14000KT 04/M00 A3017 RMK A01 T00381003  RH  075%=      5-min Rain = 0
KRO1 161005Z 00000KT 04/M00 A3017 RMK A01 T00381003  RH  075%=      5-min Rain = 0
KRO1 161006Z 00000KT 04/M00 A3017 RMK A01 T00371004  RH  075%=      5-min Rain = 0
KRO1 161007Z 00000KT 04/M00 A3017 RMK A01 T00371003  RH  075%=      5-min Rain = 0
KRO1 161008Z 00000KT 04/M00 A3017 RMK A01 T00371003  RH  075%=      5-min Rain = 0
KRO1 161009Z 00000KT 04/M00 A3017 RMK A01 T00361003  RH  075%=      5-min Rain = 0
KRO1 161010Z 00000KT 04/M00 A3017 RMK A01 T00361003  RH  075%=      5-min Rain = 0
KRO1 161011Z 00000KT 04/M00 A3017 RMK A01 T00361003  RH  075%=      5-min Rain = 0
KRO1 161012Z 00000KT 04/M00 A3017 RMK A01 T00371003  RH  075%=      5-min Rain = 0
KRO1 161013Z 00000KT 04/M00 A3017 RMK A01 T00371003  RH  075%=      5-min Rain = 0
KRO1 161014Z 00000KT 04/M00 A3017 RMK A01 T00381003  RH  075%=      5-min Rain = 0
KRO1 161015Z 00000KT 04/M00 A3017 RMK A01 T00381003  RH  074%=      5-min Rain = 0
KRO1 161016Z 00000KT 04/M00 A3017 RMK A01 T00391003  RH  074%=      5-min Rain = 0
KRO1 161017Z 00000KT 04/M00 A3017 RMK A01 T00401003  RH  073%=      5-min Rain = 0
KRO1 161018Z 00000KT 04/M00 A3017 RMK A01 T00401004  RH  073%=      5-min Rain = 0
KRO1 161019Z 00000KT 04/M00 A3017 RMK A01 T00411004  RH  073%=      5-min Rain = 0
KRO1 161020Z 00000KT 04/M00 A3017 RMK A01 T00411004  RH  072%=      5-min Rain = 0
KRO1 161021Z 00000KT 04/M00 A3017 RMK A01 T00421004  RH  072%=      5-min Rain = 0
KRO1 161022Z 00000KT 04/M00 A3017 RMK A01 T00421004  RH  072%=      5-min Rain = 0
KRO1 161023Z 00000KT 04/M00 A3017 RMK A01 T00431004  RH  071%=      5-min Rain = 0
KRO1 161024Z 00000KT 04/M00 A3017 RMK A01 T00431004  RH  071%=      5-min Rain = 0
KRO1 161025Z 00000KT 04/M00 A3017 RMK A01 T00441004  RH  071%=      5-min Rain = 0
KRO1 161026Z 00000KT 04/M01 A3017 RMK A01 T00441005  RH  071%=      5-min Rain = 0
KRO1 161027Z 00000KT 04/M00 A3017 RMK A01 T00441004  RH  071%=      5-min Rain = 0
KRO1 161028Z 22000KT 04/M01 A3017 RMK A01 T00441005  RH  071%=      5-min Rain = 0
KRO1 161029Z 22001KT 05/M01 A3017 RMK A01 T00451005  RH  070%=      5-min Rain = 0
KRO1 161030Z 22001KT 05/M01 A3017 RMK A01 T00451005  RH  070%=      5-min Rain = 0
KRO1 161031Z 21001KT 05/M01 A3017 RMK A01 T00451005  RH  070%=      5-min Rain = 0
KRO1 161032Z 21001KT 05/M01 A3017 RMK A01 T00451005  RH  070%=      5-min Rain = 0
KRO1 161033Z 21001KT 05/M01 A3017 RMK A01 T00451005  RH  070%=      5-min Rain = 0
KRO1 161034Z 21001KT 05/M01 A3017 RMK A01 T00451005  RH  070%=      5-min Rain = 0
KRO1 161035Z 21001KT 05/M01 A3017 RMK A01 T00451005  RH  070%=      5-min Rain = 0
KRO1 161036Z 21001KT 05/M01 A3017 RMK A01 T00451005  RH  070%=      5-min Rain = 0
KRO1 161037Z 20001KT 04/M01 A3017 RMK A01 T00441005  RH  070%=      5-min Rain = 0
KRO1 161038Z 20002KT 04/M01 A3016 RMK A01 T00441005  RH  070%=      5-min Rain = 0
KRO1 161039Z 20002KT 04/M01 A3016 RMK A01 T00441005  RH  070%=      5-min Rain = 0
KRO1 161040Z 19002KT 04/M01 A3016 RMK A01 T00441005  RH  071%=      5-min Rain = 0
KRO1 161041Z 19002KT 04/M00 A3016 RMK A01 T00441004  RH  071%=      5-min Rain = 0
KRO1 161042Z 18002KT 04/M00 A3016 RMK A01 T00441004  RH  071%=      5-min Rain = 0
KRO1 161043Z 18002KT 04/M00 A3016 RMK A01 T00441003  RH  071%=      5-min Rain = 0
KRO1 161044Z 16002KT 04/M00 A3016 RMK A01 T00431004  RH  071%=      5-min Rain = 0
KRO1 161045Z 16002KT 04/M00 A3016 RMK A01 T00431004  RH  071%=      5-min Rain = 0
KRO1 161046Z 16002KT 04/M00 A3016 RMK A01 T00421004  RH  072%=      5-min Rain = 0
KRO1 161047Z 16002KT 04/M00 A3016 RMK A01 T00401004  RH  073%=      5-min Rain = 0
KRO1 161048Z 16002KT 04/M00 A3016 RMK A01 T00381004  RH  074%=      5-min Rain = 0
KRO1 161049Z 16003KT 04/M00 A3016 RMK A01 T00371004  RH  075%=      5-min Rain = 0
KRO1 161050Z 16003KT 04/M00 A3016 RMK A01 T00361004  RH  075%=      5-min Rain = 0
KRO1 161051Z 16003KT 04/M00 A3016 RMK A01 T00361003  RH  076%=      5-min Rain = 0
KRO1 161052Z 16003KT 03/M00 A3016 RMK A01 T00341004  RH  076%=      5-min Rain = 0
KRO1 161053Z 17002KT 03/M00 A3016 RMK A01 T00331004  RH  077%=      5-min Rain = 0
KRO1 161054Z 16002KT 03/M00 A3016 RMK A01 T00331004  RH  077%=      5-min Rain = 0
KRO1 161055Z 16002KT 03/M00 A3016 RMK A01 T00321003  RH  078%=      5-min Rain = 0
KRO1 161056Z 16002KT 03/M00 A3016 RMK A01 T00311004  RH  078%=      5-min Rain = 0
KRO1 161057Z 17002KT 03/M00 A3016 RMK A01 T00311004  RH  078%=      5-min Rain = 0
KRO1 161058Z 17002KT 03/M00 A3016 RMK A01 T00311004  RH  078%=      5-min Rain = 0
KRO1 161059Z 17002KT 03/M00 A3016 RMK A01 T00311004  RH  077%=      5-min Rain = 0
KRO1 161100Z 17002KT 03/M01 A3016 RMK A01 T00311005  RH  077%=      5-min Rain = 0
KRO1 161101Z 17002KT 03/M01 A3016 RMK A01 T00311005  RH  077%=      5-min Rain = 0
KRO1 161102Z 17001KT 03/M00 A3016 RMK A01 T00311004  RH  077%=      5-min Rain = 0
KRO1 161103Z 17001KT 03/M00 A3016 RMK A01 T00311004  RH  078%=      5-min Rain = 0
KRO1 161104Z 17001KT 03/M00 A3016 RMK A01 T00301004  RH  078%=      5-min Rain = 0
KRO1 161105Z 17001KT 03/M00 A3016 RMK A01 T00291004  RH  079%=      5-min Rain = 0
KRO1 161106Z 17001KT 03/M00 A3016 RMK A01 T00281004  RH  079%=      5-min Rain = 0
KRO1 161107Z 16001KT 03/M00 A3016 RMK A01 T00281004  RH  080%=      5-min Rain = 0
KRO1 161108Z 16001KT 03/M00 A3016 RMK A01 T00281004  RH  080%=      5-min Rain = 0
KRO1 161109Z 16001KT 03/M00 A3016 RMK A01 T00281003  RH  080%=      5-min Rain = 0
KRO1 161110Z 18001KT 03/M00 A3016 RMK A01 T00291004  RH  079%=      5-min Rain = 0
KRO1 161111Z 18001KT 03/M00 A3016 RMK A01 T00301003  RH  079%=      5-min Rain = 0
KRO1 161112Z 18001KT 03/M00 A3016 RMK A01 T00311003  RH  078%=      5-min Rain = 0
KRO1 161113Z 20001KT 03/M00 A3016 RMK A01 T00311003  RH  078%=      5-min Rain = 0
KRO1 161114Z 21001KT 03/M00 A3016 RMK A01 T00321003  RH  078%=      5-min Rain = 0
KRO1 161115Z 20001KT 03/M00 A3016 RMK A01 T00331003  RH  077%=      5-min Rain = 0
KRO1 161116Z 20001KT 03/M00 A3016 RMK A01 T00341004  RH  076%=      5-min Rain = 0
KRO1 161117Z 20002KT 03/M00 A3016 RMK A01 T00341004  RH  076%=      5-min Rain = 0
KRO1 161118Z 20003KT 04/M00 A3016 RMK A01 T00351004  RH  076%=      5-min Rain = 0
KRO1 161119Z 21003KT 04/M00 A3016 RMK A01 T00351004  RH  075%=      5-min Rain = 0
KRO1 161120Z 20003KT 04/M00 A3016 RMK A01 T00371003  RH  075%=      5-min Rain = 0
KRO1 161121Z 20003KT 04/M00 A3016 RMK A01 T00391003  RH  074%=      5-min Rain = 0
KRO1 161122Z 19003KT 04/M00 A3016 RMK A01 T00411003  RH  073%=      5-min Rain = 0
KRO1 161123Z 19004KT 04/M00 A3016 RMK A01 T00431003  RH  072%=      5-min Rain = 0
KRO1 161124Z 19004KT 04/M00 A3016 RMK A01 T00441003  RH  072%=      5-min Rain = 0
KRO1 161125Z 19003KT 05/M00 A3016 RMK A01 T00451003  RH  071%=      5-min Rain = 0
KRO1 161126Z 18003KT 05/M00 A3016 RMK A01 T00451003  RH  071%=      5-min Rain = 0
KRO1 161127Z 18003KT 05/M00 A3016 RMK A01 T00451003  RH  071%=      5-min Rain = 0
KRO1 161128Z 17003KT 05/M00 A3016 RMK A01 T00451004  RH  070%=      5-min Rain = 0
KRO1 161129Z 18002KT 05/M01 A3016 RMK A01 T00451005  RH  070%=      5-min Rain = 0
KRO1 161130Z 17003KT 04/M01 A3016 RMK A01 T00441005  RH  071%=      5-min Rain = 0
KRO1 161131Z 18002KT 04/M01 A3016 RMK A01 T00431005  RH  071%=      5-min Rain = 0
KRO1 161132Z 19003KT 04/M01 A3016 RMK A01 T00421005  RH  071%=      5-min Rain = 0
KRO1 161133Z 18003KT 04/M00 A3016 RMK A01 T00421004  RH  072%=      5-min Rain = 0
KRO1 161134Z 18003KT 04/M00 A3016 RMK A01 T00411004  RH  072%=      5-min Rain = 0
KRO1 161135Z 18003KT 04/M00 A3016 RMK A01 T00411004  RH  072%=      5-min Rain = 0
KRO1 161136Z 18003KT 04/M00 A3016 RMK A01 T00421004  RH  072%=      5-min Rain = 0
KRO1 161137Z 18003KT 04/M00 A3016 RMK A01 T00411004  RH  072%=      5-min Rain = 0
KRO1 161138Z 19003KT 04/M00 A3016 RMK A01 T00411004  RH  072%=      5-min Rain = 0
KRO1 161139Z 19003KT 04/M00 A3016 RMK A01 T00411004  RH  072%=      5-min Rain = 0
KRO1 161140Z 19004KT 04/M01 A3016 RMK A01 T00411005  RH  072%=      5-min Rain = 0
KRO1 161141Z 19004KT 04/M01 A3016 RMK A01 T00391005  RH  073%=      5-min Rain = 0
KRO1 161142Z 19004KT 04/M01 A3016 RMK A01 T00381005  RH  074%=      5-min Rain = 0
KRO1 161143Z 20004KT 04/M01 A3016 RMK A01 T00361005  RH  074%=      5-min Rain = 0
KRO1 161144Z 20004KT 03/M01 A3016 RMK A01 T00341006  RH  075%=      5-min Rain = 0
KRO1 161145Z 20004KT 03/M01 A3016 RMK A01 T00331005  RH  076%=      5-min Rain = 0
KRO1 161146Z 20004KT 03/M01 A3016 RMK A01 T00311006  RH  077%=      5-min Rain = 0
KRO1 161147Z 20004KT 03/M01 A3016 RMK A01 T00311005  RH  077%=      5-min Rain = 0
KRO1 161148Z 21004KT 03/M01 A3016 RMK A01 T00301005  RH  078%=      5-min Rain = 0
KRO1 161149Z 21005KT 03/M00 A3016 RMK A01 T00301004  RH  078%=      5-min Rain = 0
KRO1 161150Z 21005KT 03/M00 A3016 RMK A01 T00311004  RH  078%=      5-min Rain = 0
KRO1 161151Z 20005KT 03/M00 A3016 RMK A01 T00321003  RH  078%=      5-min Rain = 0
KRO1 161152Z 20005KT 03/M00 A3016 RMK A01 T00331003  RH  077%=      5-min Rain = 0
KRO1 161153Z 20005KT 03/M00 A3016 RMK A01 T00341003  RH  077%=      5-min Rain = 0
KRO1 161154Z 20005KT 04/M00 A3016 RMK A01 T00351003  RH  077%=      5-min Rain = 0
KRO1 161155Z 20005KT 04/M00 A3016 RMK A01 T00351002  RH  076%=      5-min Rain = 0
KRO1 161156Z 20004KT 04/M00 A3016 RMK A01 T00351002  RH  076%=      5-min Rain = 0
KRO1 161157Z 21004KT 04/M00 A3016 RMK A01 T00361002  RH  076%=      5-min Rain = 0
KRO1 161158Z 21003KT 04/M00 A3016 RMK A01 T00351003  RH  076%=      5-min Rain = 0
KRO1 161159Z 21002KT 03/M00 A3016 RMK A01 T00341003  RH  076%=      5-min Rain = 0
KRO1 161200Z 22002KT 03/M00 A3016 RMK A01 T00331003  RH  077%=      5-min Rain = 0
KRO1 161201Z 22002KT 03/M00 A3016 RMK A01 T00331003  RH  077%=      5-min Rain = 0
KRO1 161202Z 22001KT 03/M00 A3016 RMK A01 T00331002  RH  078%=      5-min Rain = 0
KRO1 161203Z 23001KT 03/M00 A3016 RMK A01 T00331002  RH  078%=      5-min Rain = 0
KRO1 161204Z 23000KT 03/M00 A3016 RMK A01 T00331002  RH  078%=      5-min Rain = 0
KRO1 161205Z 23000KT 04/M00 A3016 RMK A01 T00351001  RH  077%=      5-min Rain = 0
KRO1 161206Z 24000KT 04/M00 A3016 RMK A01 T00351001  RH  077%=      5-min Rain = 0
KRO1 161207Z 26001KT 04/M00 A3016 RMK A01 T00361001  RH  077%=      5-min Rain = 0
KRO1 161208Z 24001KT 04/M00 A3016 RMK A01 T00371001  RH  076%=      5-min Rain = 0
KRO1 161209Z 24002KT 04/M00 A3016 RMK A01 T00371001  RH  076%=      5-min Rain = 0
KRO1 161210Z 24001KT 04/M00 A3016 RMK A01 T00381001  RH  076%=      5-min Rain = 0
KRO1 161211Z 23001KT 04/M00 A3016 RMK A01 T00391001  RH  075%=      5-min Rain = 0
KRO1 161212Z 22001KT 04/M00 A3016 RMK A01 T00391001  RH  075%=      5-min Rain = 0
KRO1 161213Z 22001KT 04/M00 A3016 RMK A01 T00391001  RH  075%=      5-min Rain = 0
KRO1 161214Z 21001KT 04/M00 A3016 RMK A01 T00391001  RH  075%=      5-min Rain = 0
KRO1 161215Z 20001KT 04/00 A3016 RMK A01 T004000-0  RH  075%=      5-min Rain = 0
KRO1 161216Z 19000KT 04/00 A3016 RMK A01 T004100-0  RH  075%=      5-min Rain = 0
KRO1 161217Z 19000KT 04/M00 A3016 RMK A01 T00411001  RH  074%=      5-min Rain = 0
KRO1 161218Z 18001KT 04/M00 A3016 RMK A01 T00421001  RH  074%=      5-min Rain = 0
KRO1 161219Z 16000KT 04/M00 A3016 RMK A01 T00411002  RH  074%=      5-min Rain = 0
KRO1 161220Z 18001KT 04/M00 A3016 RMK A01 T00401003  RH  074%=      5-min Rain = 0
KRO1 161221Z 16001KT 04/M00 A3016 RMK A01 T00381004  RH  074%=      5-min Rain = 0
KRO1 161222Z 16001KT 04/M00 A3016 RMK A01 T00361004  RH  075%=      5-min Rain = 0
KRO1 161223Z 14001KT 03/M00 A3016 RMK A01 T00341004  RH  076%=      5-min Rain = 0
KRO1 161224Z 14002KT 03/M00 A3016 RMK A01 T00331004  RH  076%=      5-min Rain = 0
KRO1 161225Z 14002KT 03/M00 A3016 RMK A01 T00331004  RH  077%=      5-min Rain = 0
KRO1 161226Z 13002KT 03/M00 A3016 RMK A01 T00321004  RH  077%=      5-min Rain = 0
KRO1 161227Z 12002KT 03/M00 A3016 RMK A01 T00311004  RH  078%=      5-min Rain = 0
KRO1 161228Z 14002KT 03/M01 A3016 RMK A01 T00291005  RH  078%=      5-min Rain = 0
KRO1 161229Z 14002KT 03/M01 A3016 RMK A01 T00281005  RH  079%=      5-min Rain = 0
KRO1 161230Z 15002KT 03/M00 A3016 RMK A01 T00271004  RH  080%=      5-min Rain = 0
KRO1 161231Z 15002KT 03/M00 A3016 RMK A01 T00271004  RH  080%=      5-min Rain = 0
KRO1 161232Z 16002KT 03/M00 A3016 RMK A01 T00281004  RH  080%=      5-min Rain = 0
KRO1 161233Z 18002KT 03/M00 A3016 RMK A01 T00281004  RH  080%=      5-min Rain = 0
KRO1 161234Z 19002KT 03/M00 A3016 RMK A01 T00291003  RH  079%=      5-min Rain = 0
KRO1 161235Z 18002KT 03/M00 A3016 RMK A01 T00301003  RH  079%=      5-min Rain = 0
KRO1 161236Z 20002KT 03/M00 A3016 RMK A01 T00311003  RH  078%=      5-min Rain = 0
KRO1 161237Z 19002KT 03/M00 A3016 RMK A01 T00321003  RH  078%=      5-min Rain = 0
KRO1 161238Z 20002KT 03/M00 A3016 RMK A01 T00321003  RH  078%=      5-min Rain = 0
KRO1 161239Z 21002KT 03/M00 A3016 RMK A01 T00331002  RH  078%=      5-min Rain = 0
KRO1 161240Z 22002KT 03/M00 A3016 RMK A01 T00331002  RH  078%=      5-min Rain = 0
KRO1 161241Z 22002KT 03/M00 A3016 RMK A01 T00341002  RH  077%=      5-min Rain = 0
KRO1 161242Z 23002KT 03/M00 A3016 RMK A01 T00341002  RH  077%=      5-min Rain = 0
KRO1 161243Z 23003KT 03/M00 A3016 RMK A01 T00341002  RH  077%=      5-min Rain = 0
KRO1 161244Z 24003KT 04/M00 A3016 RMK A01 T00351001  RH  077%=      5-min Rain = 0
KRO1 161245Z 23003KT 04/00 A3016 RMK A01 T003600-0  RH  077%=      5-min Rain = 0
KRO1 161246Z 23003KT 04/00 A3016 RMK A01 T003700-0  RH  077%=      5-min Rain = 0
KRO1 161247Z 22003KT 04/00 A3016 RMK A01 T00380000  RH  076%=      5-min Rain = 0
KRO1 161248Z 22003KT 04/00 A3016 RMK A01 T00400001  RH  075%=      5-min Rain = 0
KRO1 161249Z 22003KT 04/00 A3016 RMK A01 T00420001  RH  075%=      5-min Rain = 0
KRO1 161250Z 21003KT 04/00 A3016 RMK A01 T00430001  RH  074%=      5-min Rain = 0
KRO1 161251Z 21003KT 04/00 A3016 RMK A01 T00440001  RH  074%=      5-min Rain = 0
KRO1 161252Z 21004KT 04/00 A3016 RMK A01 T004400-0  RH  073%=      5-min Rain = 0
KRO1 161253Z 21004KT 04/00 A3016 RMK A01 T00440000  RH  073%=      5-min Rain = 0
KRO1 161254Z 20004KT 04/00 A3016 RMK A01 T00440000  RH  073%=      5-min Rain = 0
KRO1 161255Z 20004KT 04/00 A3016 RMK A01 T00440001  RH  073%=      5-min Rain = 0
KRO1 161256Z 20004KT 04/00 A3016 RMK A01 T00440000  RH  073%=      5-min Rain = 0
KRO1 161257Z 20004KT 04/00 A3016 RMK A01 T00440001  RH  073%=      5-min Rain = 0
KRO1 161258Z 21004KT 04/00 A3016 RMK A01 T00440001  RH  073%=      5-min Rain = 0
KRO1 161259Z 21005KT 04/00 A3016 RMK A01 T00440001  RH  074%=      5-min Rain = 0
KRO1 161300Z 21005KT 04/00 A3016 RMK A01 T00440001  RH  074%=      5-min Rain = 0
KRO1 161301Z 21005KT 04/00 A3016 RMK A01 T00440001  RH  074%=      5-min Rain = 0
KRO1 161302Z 21005KT 04/00 A3016 RMK A01 T00440001  RH  074%=      5-min Rain = 0
KRO1 161303Z 21005KT 04/00 A3016 RMK A01 T00430001  RH  074%=      5-min Rain = 0
KRO1 161304Z 21005KT 04/00 A3016 RMK A01 T00430001  RH  074%=      5-min Rain = 0
KRO1 161305Z 21005KT 04/00 A3016 RMK A01 T00420001  RH  075%=      5-min Rain = 0
KRO1 161306Z 21005KT 04/00 A3016 RMK A01 T00410002  RH  075%=      5-min Rain = 0
KRO1 161307Z 21005KT 04/00 A3017 RMK A01 T00400002  RH  076%=      5-min Rain = 0
KRO1 161308Z 21005KT 04/00 A3017 RMK A01 T00390002  RH  077%=      5-min Rain = 0
KRO1 161309Z 21005KT 04/00 A3017 RMK A01 T00390003  RH  077%=      5-min Rain = 0
KRO1 161310Z 21005KT 04/00 A3017 RMK A01 T00390003  RH  077%=      5-min Rain = 0
KRO1 161311Z 21005KT 04/00 A3017 RMK A01 T00400003  RH  077%=      5-min Rain = 0
KRO1 161312Z 21005KT 04/00 A3016 RMK A01 T00400004  RH  077%=      5-min Rain = 0
KRO1 161313Z 21005KT 04/00 A3016 RMK A01 T00410004  RH  077%=      5-min Rain = 0
KRO1 161314Z 21005KT 04/00 A3016 RMK A01 T00410004  RH  077%=      5-min Rain = 0
KRO1 161315Z 21005KT 04/00 A3017 RMK A01 T00410004  RH  077%=      5-min Rain = 0
KRO1 161316Z 21005KT 04/00 A3017 RMK A01 T00410004  RH  077%=      5-min Rain = 0
KRO1 161317Z 21004KT 04/00 A3017 RMK A01 T00410004  RH  077%=      5-min Rain = 0
KRO1 161318Z 21005KT 04/00 A3017 RMK A01 T00410004  RH  077%=      5-min Rain = 0
KRO1 161319Z 21005KT 04/00 A3016 RMK A01 T00410004  RH  077%=      5-min Rain = 0
KRO1 161320Z 20004KT 04/00 A3016 RMK A01 T00410003  RH  076%=      5-min Rain = 0
KRO1 161321Z 20004KT 04/00 A3016 RMK A01 T00410003  RH  076%=      5-min Rain = 0
KRO1 161322Z 20005KT 04/00 A3016 RMK A01 T00420003  RH  076%=      5-min Rain = 0
KRO1 161323Z 20005KT 04/00 A3016 RMK A01 T00420003  RH  076%=      5-min Rain = 0
KRO1 161324Z 21005KT 04/00 A3016 RMK A01 T00420004  RH  076%=      5-min Rain = 0
KRO1 161325Z 21006KT 04/00 A3016 RMK A01 T00420004  RH  076%=      5-min Rain = 0
KRO1 161326Z 21006KT 04/00 A3016 RMK A01 T00420004  RH  077%=      5-min Rain = 0
KRO1 161327Z 21005KT 04/00 A3016 RMK A01 T00410004  RH  077%=      5-min Rain = 0
KRO1 161328Z 21006KT 04/01 A3016 RMK A01 T00410005  RH  077%=      5-min Rain = 0
KRO1 161329Z 21005KT 04/01 A3016 RMK A01 T00410005  RH  078%=      5-min Rain = 0
KRO1 161330Z 21005KT 04/01 A3016 RMK A01 T00410006  RH  078%=      5-min Rain = 0
KRO1 161331Z 21005KT 04/01 A3016 RMK A01 T00410006  RH  078%=      5-min Rain = 0
KRO1 161332Z 21005KT 04/01 A3016 RMK A01 T00410007  RH  078%=      5-min Rain = 0
KRO1 161333Z 21005KT 04/01 A3016 RMK A01 T00410007  RH  078%=      5-min Rain = 0
KRO1 161334Z 21005KT 04/01 A3016 RMK A01 T00410007  RH  078%=      5-min Rain = 0
KRO1 161335Z 21005KT 04/01 A3016 RMK A01 T00410007  RH  078%=      5-min Rain = 0
KRO1 161336Z 21005KT 04/01 A3016 RMK A01 T00410007  RH  078%=      5-min Rain = 0
KRO1 161337Z 21005KT 04/01 A3016 RMK A01 T00420008  RH  079%=      5-min Rain = 0
KRO1 161338Z 21006KT 04/01 A3017 RMK A01 T00420008  RH  079%=      5-min Rain = 0
KRO1 161339Z 21006KT 04/01 A3017 RMK A01 T00420009  RH  079%=      5-min Rain = 0
KRO1 161340Z 21006KT 04/01 A3017 RMK A01 T00420009  RH  079%=      5-min Rain = 0
KRO1 161341Z 21006KT 04/01 A3017 RMK A01 T00430009  RH  079%=      5-min Rain = 0
KRO1 161342Z 22006KT 04/01 A3017 RMK A01 T00440010  RH  079%=      5-min Rain = 0
KRO1 161343Z 22006KT 04/01 A3017 RMK A01 T00440010  RH  078%=      5-min Rain = 0
KRO1 161344Z 22006KT 05/01 A3017 RMK A01 T00450010  RH  078%=      5-min Rain = 0
KRO1 161345Z 22006KT 05/01 A3017 RMK A01 T00460011  RH  078%=      5-min Rain = 0
KRO1 161346Z 22007KT 05/01 A3017 RMK A01 T00470011  RH  077%=      5-min Rain = 0
KRO1 161347Z 22006KT 05/01 A3017 RMK A01 T00480011  RH  077%=      5-min Rain = 0
KRO1 161348Z 22007KT 05/01 A3017 RMK A01 T00500011  RH  076%=      5-min Rain = 0
KRO1 161349Z 22006KT 05/01 A3017 RMK A01 T00510011  RH  076%=      5-min Rain = 0
KRO1 161350Z 22006KT 05/01 A3017 RMK A01 T00520012  RH  075%=      5-min Rain = 0
KRO1 161351Z 22006KT 05/01 A3017 RMK A01 T00530012  RH  075%=      5-min Rain = 0
KRO1 161352Z 22006KT 05/01 A3017 RMK A01 T00540012  RH  074%=      5-min Rain = 0
KRO1 161353Z 23006KT 06/01 A3017 RMK A01 T00550012  RH  074%=      5-min Rain = 0
KRO1 161354Z 23006KT 06/01 A3017 RMK A01 T00560012  RH  073%=      5-min Rain = 0
KRO1 161355Z 22006KT 06/01 A3017 RMK A01 T00570013  RH  073%=      5-min Rain = 0
KRO1 161356Z 22006KT 06/01 A3017 RMK A01 T00580013  RH  073%=      5-min Rain = 0
KRO1 161357Z 22006KT 06/01 A3017 RMK A01 T00590013  RH  072%=      5-min Rain = 0
KRO1 161358Z 22006KT 06/01 A3017 RMK A01 T00600013  RH  072%=      5-min Rain = 0
KRO1 161359Z 22006KT 06/01 A3017 RMK A01 T00610014  RH  072%=      5-min Rain = 0
KRO1 161400Z 21005KT 06/02 A3017 RMK A01 T00620015  RH  072%=      5-min Rain = 0
KRO1 161401Z 22005KT 06/01 A3017 RMK A01 T00630013  RH  071%=      5-min Rain = 0
KRO1 161402Z 21005KT 06/01 A3017 RMK A01 T00630014  RH  071%=      5-min Rain = 0
KRO1 161403Z 22005KT 06/02 A3017 RMK A01 T00640016  RH  071%=      5-min Rain = 0
KRO1 161404Z 22006KT 07/02 A3017 RMK A01 T00650017  RH  071%=      5-min Rain = 0
KRO1 161405Z 21006KT 07/02 A3017 RMK A01 T00660016  RH  070%=      5-min Rain = 0
KRO1 161406Z 21006KT 07/01 A3017 RMK A01 T00670014  RH  069%=      5-min Rain = 0
KRO1 161407Z 21006KT 07/02 A3017 RMK A01 T00680015  RH  069%=      5-min Rain = 0
KRO1 161408Z 21005KT 07/02 A3017 RMK A01 T00690017  RH  070%=      5-min Rain = 0
KRO1 161409Z 21006KT 07/02 A3017 RMK A01 T00690016  RH  069%=      5-min Rain = 0
KRO1 161410Z 21006KT 07/02 A3017 RMK A01 T00700016  RH  068%=      5-min Rain = 0
KRO1 161411Z 21006KT 07/02 A3017 RMK A01 T00710017  RH  069%=      5-min Rain = 0
KRO1 161412Z 21007KT 07/02 A3017 RMK A01 T00720015  RH  067%=      5-min Rain = 0
KRO1 161413Z 21007KT 07/02 A3017 RMK A01 T00730015  RH  066%=      5-min Rain = 0
KRO1 161414Z 21006KT 07/02 A3017 RMK A01 T00740015  RH  066%=      5-min Rain = 0
KRO1 161415Z 21006KT 08/02 A3017 RMK A01 T00750016  RH  067%=      5-min Rain = 0
KRO1 161416Z 21007KT 08/02 A3017 RMK A01 T00760016  RH  066%=      5-min Rain = 0
KRO1 161417Z 21007KT 08/02 A3017 RMK A01 T00760016  RH  065%=      5-min Rain = 0
KRO1 161418Z 21007KT 08/02 A3017 RMK A01 T00770016  RH  065%=      5-min Rain = 0
KRO1 161419Z 21006KT 08/02 A3017 RMK A01 T00780016  RH  065%=      5-min Rain = 0
KRO1 161420Z 21007KT 08/02 A3017 RMK A01 T00790016  RH  065%=      5-min Rain = 0
KRO1 161421Z 21007KT 08/02 A3017 RMK A01 T00790016  RH  064%=      5-min Rain = 0
KRO1 161422Z 21007KT 08/02 A3017 RMK A01 T00800017  RH  065%=      5-min Rain = 0
KRO1 161423Z 21008KT 08/02 A3017 RMK A01 T00810015  RH  063%=      5-min Rain = 0
KRO1 161424Z 21007KT 08/02 A3017 RMK A01 T00820016  RH  063%=      5-min Rain = 0
KRO1 161425Z 21008KT 08/02 A3017 RMK A01 T00820015  RH  063%=      5-min Rain = 0
KRO1 161426Z 22008KT 08/01 A3017 RMK A01 T00830014  RH  062%=      5-min Rain = 0
KRO1 161427Z 21009KT 08/01 A3017 RMK A01 T00830014  RH  062%=      5-min Rain = 0
KRO1 161428Z 21008KT 08/01 A3017 RMK A01 T00840014  RH  061%=      5-min Rain = 0
KRO1 161429Z 21007KT 09/02 A3017 RMK A01 T00850017  RH  062%=      5-min Rain = 0
KRO1 161430Z 21007KT 09/02 A3017 RMK A01 T00860017  RH  062%=      5-min Rain = 0
KRO1 161431Z 21007KT 09/02 A3017 RMK A01 T00870016  RH  061%=      5-min Rain = 0
KRO1 161432Z 21008KT 09/02 A3017 RMK A01 T00870016  RH  061%=      5-min Rain = 0
KRO1 161433Z 21009KT 09/02 A3017 RMK A01 T00870016  RH  061%=      5-min Rain = 0
KRO1 161434Z 21008KT 09/01 A3017 RMK A01 T00870013  RH  060%=      5-min Rain = 0
KRO1 161435Z 21010KT 09/01 A3017 RMK A01 T00880013  RH  059%=      5-min Rain = 0
KRO1 161436Z 22007KT 09/01 A3017 RMK A01 T00880014  RH  060%=      5-min Rain = 0
KRO1 161437Z 21008KT 09/02 A3017 RMK A01 T00880015  RH  060%=      5-min Rain = 0
KRO1 161438Z 21010KT 09/01 A3017 RMK A01 T00880013  RH  059%=      5-min Rain = 0
KRO1 161439Z 21009KT 09/01 A3017 RMK A01 T00880013  RH  059%=      5-min Rain = 0
KRO1 161440Z 22010KT 09/01 A3017 RMK A01 T00880014  RH  060%=      5-min Rain = 0
KRO1 161441Z 21009KT 09/01 A3017 RMK A01 T00890014  RH  059%=      5-min Rain = 0
KRO1 161442Z 21009KT 09/02 A3017 RMK A01 T00900015  RH  059%=      5-min Rain = 0
KRO1 161443Z 22007KT 09/02 A3017 RMK A01 T00910015  RH  059%=      5-min Rain = 0
KRO1 161444Z 21008KT 09/02 A3017 RMK A01 T00920017  RH  060%=      5-min Rain = 0
KRO1 161445Z 22010KT 09/02 A3017 RMK A01 T00930018  RH  059%=      5-min Rain = 0
KRO1 161446Z 22010KT 09/02 A3017 RMK A01 T00940015  RH  058%=      5-min Rain = 0
KRO1 161447Z 20008KT 09/02 A3017 RMK A01 T00940015  RH  058%=      5-min Rain = 0
KRO1 161448Z 21008KT 10/02 A3017 RMK A01 T00950018  RH  059%=      5-min Rain = 0
KRO1 161449Z 21009KT 10/02 A3017 RMK A01 T00960016  RH  058%=      5-min Rain = 0
KRO1 161450Z 21011KT 10/02 A3017 RMK A01 T00960017  RH  058%=      5-min Rain = 0
KRO1 161451Z 21010KT 10/02 A3017 RMK A01 T00970016  RH  057%=      5-min Rain = 0
KRO1 161452Z 20008KT 10/02 A3017 RMK A01 T00980018  RH  057%=      5-min Rain = 0
KRO1 161453Z 20008KT 10/02 A3017 RMK A01 T01000020  RH  058%=      5-min Rain = 0
KRO1 161454Z 20008KT 10/02 A3017 RMK A01 T01010020  RH  057%=      5-min Rain = 0
KRO1 161455Z 20007KT 10/02 A3017 RMK A01 T01020021  RH  057%=      5-min Rain = 0
KRO1 161456Z 21009KT 10/02 A3017 RMK A01 T01040022  RH  057%=      5-min Rain = 0
KRO1 161457Z 20009KT 10/02 A3017 RMK A01 T01040019  RH  056%=      5-min Rain = 0
KRO1 161458Z 20009KT 10/02 A3016 RMK A01 T01040020  RH  056%=      5-min Rain = 0
KRO1 161459Z 20009KT 10/02 A3017 RMK A01 T01040020  RH  056%=      5-min Rain = 0
KRO1 161500Z 20011KT 11/02 A3016 RMK A01 T01050019  RH  055%=      5-min Rain = 0
KRO1 161501Z 21010KT 11/02 A3016 RMK A01 T01050019  RH  055%=      5-min Rain = 0
KRO1 161502Z 21010KT 11/02 A3016 RMK A01 T01060019  RH  055%=      5-min Rain = 0
KRO1 161503Z 21011KT 11/02 A3016 RMK A01 T01060020  RH  055%=      5-min Rain = 0
KRO1 161504Z 21011KT 11/02 A3016 RMK A01 T01070019  RH  054%=      5-min Rain = 0
KRO1 161505Z 21012KT 11/02 A3016 RMK A01 T01080018  RH  054%=      5-min Rain = 0
KRO1 161506Z 21010KT 11/02 A3016 RMK A01 T01090017  RH  053%=      5-min Rain = 0
KRO1 161507Z 20011KT 11/02 A3016 RMK A01 T01090018  RH  054%=      5-min Rain = 0
KRO1 161508Z 20013KT 11/02 A3016 RMK A01 T01100018  RH  053%=      5-min Rain = 0
KRO1 161509Z 21012KT 11/02 A3016 RMK A01 T01100017  RH  053%=      5-min Rain = 0
KRO1 161510Z 20011KT 11/02 A3016 RMK A01 T01110018  RH  053%=      5-min Rain = 0
KRO1 161511Z 21014KT 11/02 A3016 RMK A01 T01120018  RH  052%=      5-min Rain = 0
KRO1 161512Z 21014KT 11/02 A3016 RMK A01 T01120016  RH  051%=      5-min Rain = 0
KRO1 161513Z 21014KT 11/02 A3016 RMK A01 T01120016  RH  052%=      5-min Rain = 0
KRO1 161514Z 21014KT 11/02 A3016 RMK A01 T01120015  RH  051%=      5-min Rain = 0
KRO1 161515Z 21015KT 11/02 A3017 RMK A01 T01110015  RH  051%=      5-min Rain = 0
KRO1 161516Z 21013KT 11/02 A3017 RMK A01 T01120017  RH  052%=      5-min Rain = 0
KRO1 161517Z 21012KT 11/02 A3017 RMK A01 T01130017  RH  052%=      5-min Rain = 0
KRO1 161518Z 20013KT 11/02 A3016 RMK A01 T01130016  RH  051%=      5-min Rain = 0
KRO1 161519Z 21013KT 11/02 A3016 RMK A01 T01130018  RH  052%=      5-min Rain = 0
KRO1 161520Z 20010KT 11/02 A3016 RMK A01 T01140017  RH  052%=      5-min Rain = 0
KRO1 161521Z 21010KT 11/02 A3017 RMK A01 T01140019  RH  052%=      5-min Rain = 0
KRO1 161522Z 20012KT 12/02 A3017 RMK A01 T01150020  RH  052%=      5-min Rain = 0
KRO1 161523Z 21015KT 12/02 A3016 RMK A01 T01160020  RH  052%=      5-min Rain = 0
KRO1 161524Z 20014KT 12/02 A3016 RMK A01 T01160019  RH  051%=      5-min Rain = 0
KRO1 161525Z 20015KT 12/02 A3016 RMK A01 T01160019  RH  051%=      5-min Rain = 0
KRO1 161526Z 20017KT 12/02 A3016 RMK A01 T01170019  RH  051%=      5-min Rain = 0
KRO1 161527Z 20015KT 12/02 A3016 RMK A01 T01170020  RH  051%=      5-min Rain = 0
KRO1 161528Z 20015KT 12/02 A3016 RMK A01 T01170019  RH  051%=      5-min Rain = 0
KRO1 161529Z 20016KT 12/02 A3016 RMK A01 T01180020  RH  051%=      5-min Rain = 0
KRO1 161530Z 20014KT 12/02 A3016 RMK A01 T01170019  RH  051%=      5-min Rain = 0
KRO1 161531Z 20014G19KT 12/02 A3016 RMK A01 T01180021  RH  051%=      5-min Rain = 0
KRO1 161532Z 20018KT 12/02 A3016 RMK A01 T01180020  RH  051%=      5-min Rain = 0
KRO1 161533Z 20016KT 12/02 A3016 RMK A01 T01180020  RH  051%=      5-min Rain = 0
KRO1 161534Z 20012KT 12/02 A3016 RMK A01 T01190021  RH  051%=      5-min Rain = 0
KRO1 161535Z 20014KT 12/02 A3016 RMK A01 T01210024  RH  052%=      5-min Rain = 0
KRO1 161536Z 20017KT 12/02 A3016 RMK A01 T01210022  RH  050%=      5-min Rain = 0
KRO1 161537Z 20017KT 12/02 A3016 RMK A01 T01210020  RH  050%=      5-min Rain = 0
KRO1 161538Z 20017KT 12/02 A3016 RMK A01 T01200021  RH  050%=      5-min Rain = 0
KRO1 161539Z 20017KT 12/02 A3016 RMK A01 T01210021  RH  051%=      5-min Rain = 0
KRO1 161540Z 20014KT 12/02 A3016 RMK A01 T01220022  RH  051%=      5-min Rain = 0
KRO1 161541Z 20015KT 12/02 A3016 RMK A01 T01230023  RH  051%=      5-min Rain = 0
KRO1 161542Z 20015KT 12/02 A3016 RMK A01 T01230021  RH  050%=      5-min Rain = 0
KRO1 161543Z 20014KT 12/02 A3016 RMK A01 T01230021  RH  050%=      5-min Rain = 0
KRO1 161544Z 20012KT 12/02 A3016 RMK A01 T01230023  RH  050%=      5-min Rain = 0
KRO1 161545Z 20013KT 13/03 A3015 RMK A01 T01250026  RH  051%=      5-min Rain = 0
KRO1 161546Z 19014KT 13/03 A3015 RMK A01 T01270025  RH  050%=      5-min Rain = 0
KRO1 161547Z 20011KT 13/03 A3015 RMK A01 T01280026  RH  050%=      5-min Rain = 0
KRO1 161548Z 20012KT 13/03 A3015 RMK A01 T01300028  RH  050%=      5-min Rain = 0
KRO1 161549Z 20011KT 13/03 A3015 RMK A01 T01310027  RH  049%=      5-min Rain = 0
KRO1 161550Z 20013KT 13/03 A3015 RMK A01 T01310027  RH  049%=      5-min Rain = 0
KRO1 161551Z 21015KT 13/03 A3015 RMK A01 T01310026  RH  049%=      5-min Rain = 0
KRO1 161552Z 20015KT 13/02 A3015 RMK A01 T01290023  RH  048%=      5-min Rain = 0
KRO1 161553Z 20014KT 13/02 A3015 RMK A01 T01290024  RH  049%=      5-min Rain = 0
KRO1 161554Z 20013KT 13/03 A3015 RMK A01 T01290026  RH  049%=      5-min Rain = 0
KRO1 161555Z 20011KT 13/03 A3015 RMK A01 T01310027  RH  049%=      5-min Rain = 0
KRO1 161556Z 20012KT 13/03 A3015 RMK A01 T01320028  RH  049%=      5-min Rain = 0
KRO1 161557Z 21013KT 13/03 A3015 RMK A01 T01340029  RH  049%=      5-min Rain = 0
KRO1 161558Z 20014KT 13/03 A3015 RMK A01 T01340026  RH  048%=      5-min Rain = 0
KRO1 161559Z 20011KT 13/03 A3015 RMK A01 T01340028  RH  049%=      5-min Rain = 0
KRO1 161600Z 20012KT 14/03 A3015 RMK A01 T01350029  RH  049%=      5-min Rain = 0
KRO1 161601Z 20012KT 14/03 A3015 RMK A01 T01360028  RH  048%=      5-min Rain = 0
KRO1 161602Z 20010KT 14/03 A3015 RMK A01 T01360029  RH  048%=      5-min Rain = 0
KRO1 161603Z 21013KT 14/03 A3015 RMK A01 T01360029  RH  048%=      5-min Rain = 0
KRO1 161604Z 20012G17KT 14/03 A3015 RMK A01 T01360027  RH  048%=      5-min Rain = 0
KRO1 161605Z 20013KT 14/03 A3015 RMK A01 T01360028  RH  048%=      5-min Rain = 0
KRO1 161606Z 19016KT 14/03 A3015 RMK A01 T01360028  RH  048%=      5-min Rain = 0
KRO1 161607Z 20015G20KT 14/03 A3015 RMK A01 T01350027  RH  048%=      5-min Rain = 0
KRO1 161608Z 20017KT 14/03 A3015 RMK A01 T01350026  RH  048%=      5-min Rain = 0
KRO1 161609Z 20017KT 13/03 A3015 RMK A01 T01340026  RH  048%=      5-min Rain = 0
KRO1 161610Z 20015KT 13/03 A3015 RMK A01 T01340026  RH  048%=      5-min Rain = 0
KRO1 161611Z 20016KT 13/03 A3015 RMK A01 T01340025  RH  048%=      5-min Rain = 0
KRO1 161612Z 20012KT 13/02 A3015 RMK A01 T01330024  RH  048%=      5-min Rain = 0
KRO1 161613Z 21014KT 13/03 A3015 RMK A01 T01330027  RH  048%=      5-min Rain = 0
KRO1 161614Z 21012KT 13/03 A3015 RMK A01 T01340026  RH  048%=      5-min Rain = 0
KRO1 161615Z 20012G17KT 14/03 A3015 RMK A01 T01370030  RH  049%=      5-min Rain = 0
KRO1 161616Z 20015KT 14/03 A3015 RMK A01 T01380027  RH  047%=      5-min Rain = 0
KRO1 161617Z 20012G17KT 14/03 A3015 RMK A01 T01370027  RH  047%=      5-min Rain = 0
KRO1 161618Z 19013KT 14/03 A3015 RMK A01 T01370029  RH  048%=      5-min Rain = 0
KRO1 161619Z 19012KT 14/03 A3015 RMK A01 T01370027  RH  048%=      5-min Rain = 0
KRO1 161620Z 19013KT 14/03 A3015 RMK A01 T01370028  RH  048%=      5-min Rain = 0
KRO1 161621Z 20011KT 14/03 A3015 RMK A01 T01370027  RH  047%=      5-min Rain = 0
KRO1 161622Z 21013KT 14/03 A3015 RMK A01 T01390028  RH  047%=      5-min Rain = 0
KRO1 161623Z 20011KT 14/03 A3015 RMK A01 T01400027  RH  047%=      5-min Rain = 0
KRO1 161624Z 21013KT 14/03 A3015 RMK A01 T01390028  RH  047%=      5-min Rain = 0
KRO1 161625Z 20011KT 14/03 A3015 RMK A01 T01390027  RH  047%=      5-min Rain = 0
KRO1 161626Z 20014KT 14/03 A3015 RMK A01 T01400029  RH  047%=      5-min Rain = 0
KRO1 161627Z 20014KT 14/03 A3015 RMK A01 T01400027  RH  046%=      5-min Rain = 0
KRO1 161628Z 20014KT 14/03 A3015 RMK A01 T01390026  RH  046%=      5-min Rain = 0
KRO1 161629Z 20012KT 14/03 A3015 RMK A01 T01380027  RH  047%=      5-min Rain = 0
KRO1 161630Z 20014KT 14/03 A3015 RMK A01 T01400027  RH  047%=      5-min Rain = 0
KRO1 161631Z 20013KT 14/03 A3015 RMK A01 T01400027  RH  046%=      5-min Rain = 0
KRO1 161632Z 20014KT 14/03 A3014 RMK A01 T01400027  RH  046%=      5-min Rain = 0
KRO1 161633Z 21013KT 14/03 A3014 RMK A01 T01390026  RH  046%=      5-min Rain = 0
KRO1 161634Z 19012KT 14/03 A3014 RMK A01 T01390026  RH  046%=      5-min Rain = 0
KRO1 161635Z 19011KT 14/03 A3014 RMK A01 T01390028  RH  047%=      5-min Rain = 0
KRO1 161636Z 20011KT 14/03 A3014 RMK A01 T01410029  RH  047%=      5-min Rain = 0
KRO1 161637Z 19012KT 14/03 A3014 RMK A01 T01410028  RH  046%=      5-min Rain = 0
KRO1 161638Z 19011KT 14/03 A3014 RMK A01 T01420028  RH  046%=      5-min Rain = 0
KRO1 161639Z 18012KT 14/03 A3014 RMK A01 T01420029  RH  046%=      5-min Rain = 0
KRO1 161640Z 19011KT 14/03 A3014 RMK A01 T01420029  RH  046%=      5-min Rain = 0
KRO1 161641Z 19010KT 14/03 A3014 RMK A01 T01440030  RH  046%=      5-min Rain = 0
KRO1 161642Z 20011KT 14/03 A3014 RMK A01 T01440028  RH  046%=      5-min Rain = 0
KRO1 161643Z 20010KT 15/03 A3014 RMK A01 T01450029  RH  046%=      5-min Rain = 0
KRO1 161644Z 18011KT 15/03 A3014 RMK A01 T01450029  RH  046%=      5-min Rain = 0
KRO1 161645Z 19014KT 15/03 A3014 RMK A01 T01460030  RH  046%=      5-min Rain = 0
KRO1 161646Z 20012KT 15/03 A3014 RMK A01 T01460029  RH  045%=      5-min Rain = 0
KRO1 161647Z 19013KT 15/03 A3014 RMK A01 T01460029  RH  045%=      5-min Rain = 0
KRO1 161648Z 19013KT 15/03 A3014 RMK A01 T01470030  RH  045%=      5-min Rain = 0
KRO1 161649Z 19012KT 15/03 A3014 RMK A01 T01470029  RH  045%=      5-min Rain = 0
KRO1 161650Z 19010KT 15/03 A3014 RMK A01 T01470030  RH  046%=      5-min Rain = 0
KRO1 161651Z 19012KT 15/03 A3014 RMK A01 T01480031  RH  046%=      5-min Rain = 0
KRO1 161652Z 19012KT 15/03 A3014 RMK A01 T01480031  RH  045%=      5-min Rain = 0
KRO1 161653Z 18013KT 15/03 A3013 RMK A01 T01480031  RH  045%=      5-min Rain = 0
KRO1 161654Z 20012KT 15/03 A3013 RMK A01 T01480031  RH  045%=      5-min Rain = 0
KRO1 161655Z 19010KT 15/03 A3013 RMK A01 T01490031  RH  045%=      5-min Rain = 0
KRO1 161656Z 18012KT 15/03 A3013 RMK A01 T01510032  RH  045%=      5-min Rain = 0
KRO1 161657Z 19013KT 15/03 A3013 RMK A01 T01520032  RH  044%=      5-min Rain = 0
KRO1 161658Z 20010KT 15/03 A3013 RMK A01 T01520032  RH  044%=      5-min Rain = 0
KRO1 161659Z 19013KT 15/03 A3013 RMK A01 T01530031  RH  044%=      5-min Rain = 0
KRO1 161700Z 19012KT 15/03 A3013 RMK A01 T01530030  RH  044%=      5-min Rain = 0
KRO1 161701Z 20010KT 15/03 A3013 RMK A01 T01520031  RH  044%=      5-min Rain = 0
KRO1 161702Z 19008KT 15/03 A3013 RMK A01 T01530032  RH  044%=      5-min Rain = 0
KRO1 161703Z 18011KT 16/04 A3013 RMK A01 T01560036  RH  044%=      5-min Rain = 0
KRO1 161704Z 20010KT 16/03 A3013 RMK A01 T01580033  RH  043%=      5-min Rain = 0
KRO1 161705Z 20007KT 16/03 A3013 RMK A01 T01570031  RH  043%=      5-min Rain = 0
KRO1 161706Z 19011KT 16/03 A3013 RMK A01 T01570033  RH  043%=      5-min Rain = 0
KRO1 161707Z 18012KT 16/03 A3013 RMK A01 T01580032  RH  043%=      5-min Rain = 0
KRO1 161708Z 19011KT 16/03 A3013 RMK A01 T01580033  RH  043%=      5-min Rain = 0
KRO1 161709Z 18010KT 16/03 A3013 RMK A01 T01570032  RH  043%=      5-min Rain = 0
KRO1 161710Z 19010KT 16/03 A3013 RMK A01 T01570033  RH  044%=      5-min Rain = 0
KRO1 161711Z 18012KT 16/03 A3013 RMK A01 T01570032  RH  043%=      5-min Rain = 0
KRO1 161712Z 18012KT 16/03 A3013 RMK A01 T01580034  RH  043%=      5-min Rain = 0
KRO1 161713Z 18011KT 16/04 A3013 RMK A01 T01590036  RH  044%=      5-min Rain = 0
KRO1 161714Z 18011KT 16/04 A3013 RMK A01 T01600035  RH  043%=      5-min Rain = 0
KRO1 161715Z 19010KT 16/03 A3013 RMK A01 T01600034  RH  043%=      5-min Rain = 0
KRO1 161716Z 20012KT 16/04 A3013 RMK A01 T01590035  RH  043%=      5-min Rain = 0
KRO1 161717Z 21011KT 16/04 A3013 RMK A01 T01600036  RH  043%=      5-min Rain = 0
KRO1 161718Z 20012KT 16/04 A3013 RMK A01 T01620036  RH  043%=      5-min Rain = 0
KRO1 161719Z 20013KT 16/04 A3013 RMK A01 T01630036  RH  043%=      5-min Rain = 0
KRO1 161720Z 19011KT 16/03 A3013 RMK A01 T01620034  RH  042%=      5-min Rain = 0
KRO1 161721Z 19012KT 16/04 A3013 RMK A01 T01620036  RH  043%=      5-min Rain = 0
KRO1 161722Z 21010KT 16/04 A3012 RMK A01 T01620035  RH  043%=      5-min Rain = 0
KRO1 161723Z 20010KT 16/04 A3012 RMK A01 T01620037  RH  043%=      5-min Rain = 0
KRO1 161724Z 21012KT 16/04 A3012 RMK A01 T01640037  RH  043%=      5-min Rain = 0
KRO1 161725Z 21012KT 16/04 A3012 RMK A01 T01640036  RH  042%=      5-min Rain = 0
KRO1 161726Z 22012KT 16/04 A3012 RMK A01 T01640035  RH  042%=      5-min Rain = 0
KRO1 161727Z 20010KT 16/04 A3012 RMK A01 T01630037  RH  043%=      5-min Rain = 0
KRO1 161728Z 19010KT 16/04 A3012 RMK A01 T01640039  RH  043%=      5-min Rain = 0
KRO1 161729Z 20009KT 17/04 A3012 RMK A01 T01660041  RH  043%=      5-min Rain = 0
KRO1 161730Z 21011KT 17/04 A3012 RMK A01 T01680040  RH  042%=      5-min Rain = 0
KRO1 161731Z 20009KT 17/04 A3012 RMK A01 T01690040  RH  042%=      5-min Rain = 0
KRO1 161732Z 19012KT 17/04 A3012 RMK A01 T01690041  RH  042%=      5-min Rain = 0
KRO1 161733Z 20013KT 17/04 A3012 RMK A01 T01660037  RH  042%=      5-min Rain = 0
KRO1 161734Z 21012KT 16/04 A3012 RMK A01 T01630037  RH  043%=      5-min Rain = 0
KRO1 161735Z 21012KT 16/04 A3012 RMK A01 T01610037  RH  043%=      5-min Rain = 0
KRO1 161736Z 21009KT 16/04 A3012 RMK A01 T01610037  RH  044%=      5-min Rain = 0
KRO1 161737Z 19011KT 16/04 A3012 RMK A01 T01620040  RH  044%=      5-min Rain = 0
KRO1 161738Z 20011KT 16/04 A3012 RMK A01 T01620039  RH  044%=      5-min Rain = 0
KRO1 161739Z 20012KT 16/04 A3012 RMK A01 T01620038  RH  043%=      5-min Rain = 0
KRO1 161740Z 21011KT 16/04 A3011 RMK A01 T01610037  RH  043%=      5-min Rain = 0
KRO1 161741Z 20013KT 16/04 A3011 RMK A01 T01590036  RH  044%=      5-min Rain = 0
KRO1 161742Z 19013KT 16/04 A3011 RMK A01 T01580036  RH  044%=      5-min Rain = 0
KRO1 161743Z 19011KT 16/04 A3011 RMK A01 T01560035  RH  044%=      5-min Rain = 0
KRO1 161744Z 19010KT 16/04 A3011 RMK A01 T01550036  RH  045%=      5-min Rain = 0
KRO1 161745Z 19009KT 16/04 A3011 RMK A01 T01550037  RH  045%=      5-min Rain = 0
KRO1 161746Z 20009KT 16/04 A3011 RMK A01 T01570039  RH  045%=      5-min Rain = 0
KRO1 161747Z 20011KT 16/04 A3011 RMK A01 T01590040  RH  045%=      5-min Rain = 0
KRO1 161748Z 21014KT 16/04 A3011 RMK A01 T01600038  RH  044%=      5-min Rain = 0
KRO1 161749Z 20013KT 16/04 A3011 RMK A01 T01600037  RH  044%=      5-min Rain = 0
KRO1 161750Z 21013KT 16/04 A3011 RMK A01 T01600038  RH  044%=      5-min Rain = 0
KRO1 161751Z 22012KT 16/04 A3011 RMK A01 T01600038  RH  044%=      5-min Rain = 0
KRO1 161752Z 22013KT 16/04 A3011 RMK A01 T01610038  RH  044%=      5-min Rain = 0
KRO1 161753Z 22010KT 16/04 A3011 RMK A01 T01600038  RH  044%=      5-min Rain = 0
KRO1 161754Z 21011KT 16/04 A3011 RMK A01 T01600040  RH  045%=      5-min Rain = 0
KRO1 161755Z 20011KT 16/04 A3011 RMK A01 T01610039  RH  044%=      5-min Rain = 0
KRO1 161756Z 21013KT 16/04 A301 RMK A01 T01600038  RH  044%=      5-min Rain = 0
KRO1 161757Z 21011KT 16/04 A301 RMK A01 T01600038  RH  044%=      5-min Rain = 0
KRO1 161758Z 22012KT 16/04 A301 RMK A01 T01610039  RH  044%=      5-min Rain = 0
KRO1 161759Z 21013KT 16/04 A301 RMK A01 T01610038  RH  044%=      5-min Rain = 0
KRO1 161800Z 20014KT 16/04 A301 RMK A01 T01610038  RH  044%=      5-min Rain = 0
KRO1 161801Z 20014KT 16/04 A301 RMK A01 T01620037  RH  043%=      5-min Rain = 0
KRO1 161802Z 20014KT 16/04 A301 RMK A01 T01620038  RH  044%=      5-min Rain = 0
KRO1 161803Z 19013KT 16/04 A301 RMK A01 T01620039  RH  044%=      5-min Rain = 0
KRO1 161804Z 21012KT 16/04 A301 RMK A01 T01620039  RH  044%=      5-min Rain = 0
KRO1 161805Z 21012KT 16/04 A301 RMK A01 T01630038  RH  043%=      5-min Rain = 0
KRO1 161806Z 21012KT 16/04 A301 RMK A01 T01630039  RH  044%=      5-min Rain = 0
KRO1 161807Z 21010KT 16/04 A301 RMK A01 T01620039  RH  044%=      5-min Rain = 0
KRO1 161808Z 20010KT 16/04 A301 RMK A01 T01630040  RH  044%=      5-min Rain = 0
KRO1 161809Z 21011KT 17/04 A301 RMK A01 T01650040  RH  043%=      5-min Rain = 0
KRO1 161810Z 21013KT 17/04 A301 RMK A01 T01650039  RH  043%=      5-min Rain = 0
KRO1 161811Z 20013KT 16/04 A301 RMK A01 T01640040  RH  044%=      5-min Rain = 0
KRO1 161812Z 20015KT 16/04 A3009 RMK A01 T01640040  RH  044%=      5-min Rain = 0
KRO1 161813Z 21012KT 16/04 A3009 RMK A01 T01630040  RH  044%=      5-min Rain = 0
KRO1 161814Z 21011KT 16/04 A3009 RMK A01 T01640042  RH  044%=      5-min Rain = 0
KRO1 161815Z 21013KT 17/04 A3009 RMK A01 T01650040  RH  043%=      5-min Rain = 0
KRO1 161816Z 21011KT 16/04 A3009 RMK A01 T01640039  RH  043%=      5-min Rain = 0
KRO1 161817Z 22012KT 16/04 A3009 RMK A01 T01640041  RH  044%=      5-min Rain = 0
KRO1 161818Z 20012KT 17/04 A3009 RMK A01 T01650040  RH  044%=      5-min Rain = 0
KRO1 161819Z 20010KT 17/04 A3009 RMK A01 T01650040  RH  043%=      5-min Rain = 0
KRO1 161820Z 19008KT 17/04 A3009 RMK A01 T01650040  RH  043%=      5-min Rain = 0
KRO1 161821Z 21010KT 16/04 A3009 RMK A01 T01640040  RH  043%=      5-min Rain = 0
KRO1 161822Z 21010KT 16/04 A3009 RMK A01 T01640040  RH  044%=      5-min Rain = 0
KRO1 161823Z 21011KT 17/04 A3009 RMK A01 T01650041  RH  043%=      5-min Rain = 0
KRO1 161824Z 21011KT 17/04 A3009 RMK A01 T01650039  RH  043%=      5-min Rain = 0
KRO1 161825Z 19010KT 17/04 A3009 RMK A01 T01650040  RH  043%=      5-min Rain = 0
KRO1 161826Z 19008KT 17/04 A3009 RMK A01 T01650041  RH  044%=      5-min Rain = 0
KRO1 161827Z 20009KT 17/04 A3009 RMK A01 T01660042  RH  044%=      5-min Rain = 0
KRO1 161828Z 20009KT 17/04 A3008 RMK A01 T01660041  RH  043%=      5-min Rain = 0
KRO1 161829Z 20009KT 17/04 A3008 RMK A01 T01660041  RH  043%=      5-min Rain = 0
KRO1 161830Z 20008KT 17/04 A3008 RMK A01 T01660043  RH  044%=      5-min Rain = 0
KRO1 161831Z 19007KT 17/04 A3008 RMK A01 T01680044  RH  044%=      5-min Rain = 0
KRO1 161832Z 18011KT 17/04 A3008 RMK A01 T01680043  RH  043%=      5-min Rain = 0
KRO1 161833Z 18012KT 17/04 A3008 RMK A01 T01670041  RH  043%=      5-min Rain = 0
KRO1 161834Z 19011KT 17/04 A3008 RMK A01 T01650041  RH  044%=      5-min Rain = 0
KRO1 161835Z 19010KT 17/04 A3008 RMK A01 T01650041  RH  044%=      5-min Rain = 0
KRO1 161836Z 18011KT 17/04 A3008 RMK A01 T01650041  RH  044%=      5-min Rain = 0
KRO1 161837Z 18010KT 17/04 A3008 RMK A01 T01650041  RH  043%=      5-min Rain = 0
KRO1 161838Z 18007KT 17/04 A3008 RMK A01 T01650042  RH  044%=      5-min Rain = 0
KRO1 161839Z 18008KT 17/04 A3008 RMK A01 T01660042  RH  044%=      5-min Rain = 0
KRO1 161840Z 18010KT 17/04 A3008 RMK A01 T01670041  RH  043%=      5-min Rain = 0
KRO1 161841Z 20009KT 17/04 A3008 RMK A01 T01670042  RH  043%=      5-min Rain = 0
KRO1 161842Z 20010KT 17/04 A3007 RMK A01 T01680041  RH  043%=      5-min Rain = 0
KRO1 161843Z 20012KT 17/04 A3007 RMK A01 T01680041  RH  043%=      5-min Rain = 0
KRO1 161844Z 19010KT 17/04 A3007 RMK A01 T01680040  RH  043%=      5-min Rain = 0
KRO1 161845Z 20008KT 17/04 A3007 RMK A01 T01680041  RH  043%=      5-min Rain = 0
KRO1 161846Z 20008KT 17/04 A3007 RMK A01 T01710042  RH  042%=      5-min Rain = 0
KRO1 161847Z 20007KT 17/04 A3007 RMK A01 T01720043  RH  042%=      5-min Rain = 0
KRO1 161848Z 21008KT 17/04 A3007 RMK A01 T01740043  RH  042%=      5-min Rain = 0
KRO1 161849Z 20008KT 17/04 A3007 RMK A01 T01740042  RH  042%=      5-min Rain = 0
KRO1 161850Z 20012KT 18/05 A3007 RMK A01 T01750046  RH  042%=      5-min Rain = 0
KRO1 161851Z 20010KT 18/04 A3007 RMK A01 T01760044  RH  042%=      5-min Rain = 0
KRO1 161852Z 20009KT 18/04 A3006 RMK A01 T01760044  RH  041%=      5-min Rain = 0
KRO1 161853Z 18009KT 18/04 A3006 RMK A01 T01770044  RH  041%=      5-min Rain = 0
KRO1 161854Z 18008KT 18/04 A3006 RMK A01 T01760044  RH  041%=      5-min Rain = 0
KRO1 161855Z 19006KT 18/04 A3006 RMK A01 T01760043  RH  041%=      5-min Rain = 0
KRO1 161856Z 19005KT 18/04 A3006 RMK A01 T01760044  RH  042%=      5-min Rain = 0
KRO1 161857Z 18009KT 18/05 A3006 RMK A01 T01790047  RH  041%=      5-min Rain = 0
KRO1 161858Z 17011KT 18/05 A3006 RMK A01 T01810045  RH  041%=      5-min Rain = 0
KRO1 161859Z 18011KT 18/04 A3006 RMK A01 T01800044  RH  041%=      5-min Rain = 0
KRO1 161900Z 18008KT 18/04 A3006 RMK A01 T01780044  RH  041%=      5-min Rain = 0
KRO1 161901Z 17009KT 18/04 A3006 RMK A01 T01780042  RH  041%=      5-min Rain = 0
KRO1 161902Z 17012KT 18/04 A3006 RMK A01 T01770043  RH  041%=      5-min Rain = 0
KRO1 161903Z 17012KT 18/04 A3006 RMK A01 T01770043  RH  041%=      5-min Rain = 0
KRO1 161904Z 18010KT 18/05 A3006 RMK A01 T01770046  RH  042%=      5-min Rain = 0
KRO1 161905Z 19009KT 18/04 A3005 RMK A01 T01790043  RH  041%=      5-min Rain = 0
KRO1 161906Z 18007KT 18/04 A3005 RMK A01 T01780044  RH  041%=      5-min Rain = 0
KRO1 161907Z 19007KT 18/05 A3005 RMK A01 T01790046  RH  041%=      5-min Rain = 0
KRO1 161908Z 18010KT 18/05 A3005 RMK A01 T01810045  RH  041%=      5-min Rain = 0
KRO1 161909Z 18010KT 18/05 A3005 RMK A01 T01800045  RH  041%=      5-min Rain = 0
KRO1 161910Z 17010KT 18/05 A3005 RMK A01 T01800045  RH  041%=      5-min Rain = 0
KRO1 161911Z 17012KT 18/05 A3005 RMK A01 T01800045  RH  041%=      5-min Rain = 0
KRO1 161912Z 19011KT 18/05 A3005 RMK A01 T01800046  RH  041%=      5-min Rain = 0
KRO1 161913Z 20008KT 18/05 A3005 RMK A01 T01800047  RH  042%=      5-min Rain = 0
KRO1 161914Z 18007KT 18/05 A3005 RMK A01 T01800045  RH  041%=      5-min Rain = 0
KRO1 161915Z 18010KT 18/05 A3004 RMK A01 T01800048  RH  042%=      5-min Rain = 0
KRO1 161916Z 19010KT 18/05 A3004 RMK A01 T01800047  RH  041%=      5-min Rain = 0
KRO1 161917Z 17007KT 18/05 A3004 RMK A01 T01780045  RH  041%=      5-min Rain = 0
KRO1 161918Z 17009KT 18/05 A3004 RMK A01 T01780046  RH  042%=      5-min Rain = 0
KRO1 161919Z 17009KT 18/05 A3004 RMK A01 T01780046  RH  042%=      5-min Rain = 0
KRO1 161920Z 20011KT 18/05 A3004 RMK A01 T01790048  RH  042%=      5-min Rain = 0
KRO1 161921Z 19012KT 18/05 A3004 RMK A01 T01800048  RH  042%=      5-min Rain = 0
KRO1 161922Z 19010KT 18/05 A3004 RMK A01 T01810047  RH  041%=      5-min Rain = 0
KRO1 161923Z 20008KT 18/05 A3004 RMK A01 T01800045  RH  041%=      5-min Rain = 0
KRO1 161924Z 20007KT 18/05 A3004 RMK A01 T01800048  RH  042%=      5-min Rain = 0
KRO1 161925Z 20009KT 18/05 A3004 RMK A01 T01810047  RH  041%=      5-min Rain = 0
KRO1 161926Z 18008KT 18/05 A3004 RMK A01 T01820048  RH  041%=      5-min Rain = 0
KRO1 161927Z 18010KT 18/05 A3004 RMK A01 T01830048  RH  041%=      5-min Rain = 0
KRO1 161928Z 20012KT 18/05 A3004 RMK A01 T01830048  RH  041%=      5-min Rain = 0
KRO1 161929Z 20010KT 18/05 A3004 RMK A01 T01830047  RH  041%=      5-min Rain = 0
KRO1 161930Z 21011KT 18/05 A3004 RMK A01 T01830048  RH  041%=      5-min Rain = 0
KRO1 161931Z 20011KT 18/05 A3004 RMK A01 T01840047  RH  040%=      5-min Rain = 0
KRO1 161932Z 20009KT 18/05 A3004 RMK A01 T01840048  RH  041%=      5-min Rain = 0
KRO1 161933Z 18011KT 19/05 A3004 RMK A01 T01860048  RH  040%=      5-min Rain = 0
KRO1 161934Z 18008KT 19/05 A3004 RMK A01 T01860048  RH  040%=      5-min Rain = 0
KRO1 161935Z 18011KT 19/05 A3003 RMK A01 T01860048  RH  040%=      5-min Rain = 0
KRO1 161936Z 19011KT 19/05 A3003 RMK A01 T01850048  RH  040%=      5-min Rain = 0
KRO1 161937Z 17011KT 19/05 A3003 RMK A01 T01850050  RH  041%=      5-min Rain = 0
KRO1 161938Z 18012KT 19/05 A3003 RMK A01 T01850048  RH  040%=      5-min Rain = 0
KRO1 161939Z 20011KT 18/05 A3003 RMK A01 T01830048  RH  041%=      5-min Rain = 0
KRO1 161940Z 20008KT 18/05 A3003 RMK A01 T01830050  RH  041%=      5-min Rain = 0
KRO1 161941Z 18012KT 18/05 A3003 RMK A01 T01840049  RH  041%=      5-min Rain = 0
KRO1 161942Z 18010KT 18/05 A3003 RMK A01 T01840047  RH  041%=      5-min Rain = 0
KRO1 161943Z 18009KT 18/05 A3003 RMK A01 T01820047  RH  041%=      5-min Rain = 0
KRO1 161944Z 18015KT 18/05 A3003 RMK A01 T01810048  RH  041%=      5-min Rain = 0
KRO1 161945Z 18015KT 18/05 A3003 RMK A01 T01820047  RH  041%=      5-min Rain = 0
KRO1 161946Z 18014KT 18/05 A3003 RMK A01 T01800047  RH  041%=      5-min Rain = 0
KRO1 161947Z 19013KT 18/05 A3003 RMK A01 T01790048  RH  042%=      5-min Rain = 0
KRO1 161948Z 20012KT 18/05 A3003 RMK A01 T01790047  RH  042%=      5-min Rain = 0
KRO1 161949Z 19010KT 18/05 A3003 RMK A01 T01800047  RH  042%=      5-min Rain = 0
KRO1 161950Z 19010KT 18/05 A3003 RMK A01 T01820049  RH  042%=      5-min Rain = 0
KRO1 161951Z 19010KT 18/05 A3003 RMK A01 T01830048  RH  041%=      5-min Rain = 0
KRO1 161952Z 20012KT 18/05 A3003 RMK A01 T01840048  RH  041%=      5-min Rain = 0
KRO1 161953Z 19009KT 18/05 A3003 RMK A01 T01840048  RH  040%=      5-min Rain = 0
KRO1 161954Z 18011KT 19/05 A3003 RMK A01 T01850049  RH  041%=      5-min Rain = 0
KRO1 161955Z 18009KT 19/05 A3003 RMK A01 T01860050  RH  041%=      5-min Rain = 0
KRO1 161956Z 17007KT 19/05 A3003 RMK A01 T01880052  RH  041%=      5-min Rain = 0
KRO1 161957Z 16010KT 19/05 A3003 RMK A01 T01900051  RH  040%=      5-min Rain = 0
KRO1 161958Z 17012KT 19/05 A3003 RMK A01 T01900051  RH  040%=      5-min Rain = 0
KRO1 161959Z 17012KT 19/05 A3002 RMK A01 T01890047  RH  039%=      5-min Rain = 0
KRO1 162000Z 18008KT 19/05 A3002 RMK A01 T01860048  RH  040%=      5-min Rain = 0
KRO1 162001Z 17007KT 19/05 A3002 RMK A01 T01850048  RH  040%=      5-min Rain = 0
KRO1 162002Z 17010KT 19/05 A3002 RMK A01 T01850049  RH  041%=      5-min Rain = 0
KRO1 162003Z 17009KT 19/05 A3002 RMK A01 T01850050  RH  041%=      5-min Rain = 0
KRO1 162004Z 17012KT 19/05 A3002 RMK A01 T01860052  RH  041%=      5-min Rain = 0
KRO1 162005Z 18011KT 19/05 A3002 RMK A01 T01870050  RH  041%=      5-min Rain = 0
KRO1 162006Z 18010KT 19/05 A3002 RMK A01 T01860049  RH  040%=      5-min Rain = 0
KRO1 162007Z 18010KT 19/05 A3002 RMK A01 T01850048  RH  040%=      5-min Rain = 0
KRO1 162008Z 18010KT 18/05 A3002 RMK A01 T01840048  RH  041%=      5-min Rain = 0
KRO1 162009Z 18011KT 18/05 A3002 RMK A01 T01830049  RH  041%=      5-min Rain = 0
KRO1 162010Z 18011KT 18/05 A3002 RMK A01 T01830049  RH  041%=      5-min Rain = 0
KRO1 162011Z 17013KT 18/05 A3002 RMK A01 T01830049  RH  041%=      5-min Rain = 0
KRO1 162012Z 18013KT 18/05 A3002 RMK A01 T01830049  RH  041%=      5-min Rain = 0
KRO1 162013Z 17013KT 18/05 A3002 RMK A01 T01830049  RH  041%=      5-min Rain = 0
KRO1 162014Z 17010KT 18/05 A3002 RMK A01 T01830049  RH  041%=      5-min Rain = 0
KRO1 162015Z 19011KT 18/05 A3002 RMK A01 T01840052  RH  042%=      5-min Rain = 0
KRO1 162016Z 19010KT 19/05 A3002 RMK A01 T01850050  RH  041%=      5-min Rain = 0
KRO1 162017Z 19011KT 19/05 A3002 RMK A01 T01850050  RH  041%=      5-min Rain = 0
KRO1 162018Z 18011KT 19/05 A3002 RMK A01 T01850052  RH  042%=      5-min Rain = 0
KRO1 162019Z 19011KT 19/05 A3002 RMK A01 T01860052  RH  041%=      5-min Rain = 0
KRO1 162020Z 19011KT 19/05 A3001 RMK A01 T01860050  RH  041%=      5-min Rain = 0
KRO1 162021Z 19010KT 19/05 A3001 RMK A01 T01850049  RH  041%=      5-min Rain = 0
KRO1 162022Z 17010KT 18/05 A3001 RMK A01 T01840051  RH  041%=      5-min Rain = 0
KRO1 162023Z 18013KT 18/05 A3001 RMK A01 T01840050  RH  041%=      5-min Rain = 0
KRO1 162024Z 18011KT 18/05 A3001 RMK A01 T01840050  RH  041%=      5-min Rain = 0
KRO1 162025Z 18012KT 19/05 A3001 RMK A01 T01850050  RH  041%=      5-min Rain = 0
KRO1 162026Z 18011KT 19/05 A3001 RMK A01 T01850050  RH  041%=      5-min Rain = 0
KRO1 162027Z 17010KT 19/05 A3001 RMK A01 T01850052  RH  042%=      5-min Rain = 0
KRO1 162028Z 17011KT 19/05 A3001 RMK A01 T01860051  RH  041%=      5-min Rain = 0
KRO1 162029Z 18011KT 19/05 A3001 RMK A01 T01860049  RH  041%=      5-min Rain = 0
KRO1 162030Z 18011KT 19/05 A3001 RMK A01 T01850051  RH  041%=      5-min Rain = 0
KRO1 162031Z 18011KT 19/05 A3001 RMK A01 T01850050  RH  041%=      5-min Rain = 0
KRO1 162032Z 19010KT 19/05 A3001 RMK A01 T01850051  RH  041%=      5-min Rain = 0
KRO1 162033Z 18011KT 19/05 A3001 RMK A01 T01850051  RH  041%=      5-min Rain = 0
KRO1 162034Z 18010KT 19/05 A3001 RMK A01 T01850051  RH  041%=      5-min Rain = 0
KRO1 162035Z 18011KT 19/05 A3001 RMK A01 T01850053  RH  042%=      5-min Rain = 0
KRO1 162036Z 18010KT 19/05 A3001 RMK A01 T01870052  RH  041%=      5-min Rain = 0
KRO1 162037Z 17011KT 19/05 A3001 RMK A01 T01870052  RH  041%=      5-min Rain = 0
KRO1 162038Z 18010KT 19/05 A3001 RMK A01 T01870052  RH  041%=      5-min Rain = 0
KRO1 162039Z 18010KT 19/05 A3001 RMK A01 T01870051  RH  041%=      5-min Rain = 0
KRO1 162040Z 18010KT 19/05 A3001 RMK A01 T01860049  RH  041%=      5-min Rain = 0
KRO1 162041Z 19011KT 19/05 A3001 RMK A01 T01860051  RH  041%=      5-min Rain = 0
KRO1 162042Z 19010KT 19/05 A3001 RMK A01 T01860051  RH  041%=      5-min Rain = 0
KRO1 162043Z 19012KT 19/05 A3001 RMK A01 T01860050  RH  041%=      5-min Rain = 0
KRO1 162044Z 19012KT 19/05 A3001 RMK A01 T01860051  RH  041%=      5-min Rain = 0
KRO1 162045Z 18013KT 19/05 A3001 RMK A01 T01860050  RH  041%=      5-min Rain = 0
KRO1 162046Z 19012KT 19/05 A3001 RMK A01 T01850049  RH  041%=      5-min Rain = 0
KRO1 162047Z 19009KT 19/05 A3001 RMK A01 T01850050  RH  041%=      5-min Rain = 0
KRO1 162048Z 18010KT 19/05 A3001 RMK A01 T01860050  RH  041%=      5-min Rain = 0
KRO1 162049Z 18012KT 19/05 A3001 RMK A01 T01860049  RH  041%=      5-min Rain = 0
KRO1 162050Z 18009KT 19/05 A3001 RMK A01 T01860050  RH  041%=      5-min Rain = 0
KRO1 162051Z 17009KT 19/05 A3001 RMK A01 T01860051  RH  041%=      5-min Rain = 0
KRO1 162052Z 17010KT 19/05 A3001 RMK A01 T01870049  RH  040%=      5-min Rain = 0
KRO1 162053Z 17010KT 19/05 A3001 RMK A01 T01870050  RH  040%=      5-min Rain = 0
KRO1 162054Z 17012KT 19/05 A30 RMK A01 T01870050  RH  040%=      5-min Rain = 0
KRO1 162055Z 18009KT 19/05 A30 RMK A01 T01870051  RH  041%=      5-min Rain = 0
KRO1 162056Z 18009KT 19/05 A30 RMK A01 T01870052  RH  041%=      5-min Rain = 0
KRO1 162057Z 19009KT 19/05 A30 RMK A01 T01870052  RH  041%=      5-min Rain = 0
KRO1 162058Z 19010KT 19/05 A30 RMK A01 T01870050  RH  040%=      5-min Rain = 0
KRO1 162059Z 18009KT 19/05 A30 RMK A01 T01880052  RH  041%=      5-min Rain = 0
KRO1 162100Z 18009KT 19/05 A30 RMK A01 T01890051  RH  040%=      5-min Rain = 0
KRO1 162101Z 17009KT 19/05 A30 RMK A01 T01890051  RH  040%=      5-min Rain = 0
KRO1 162102Z 16009KT 19/05 A30 RMK A01 T01890052  RH  040%=      5-min Rain = 0
KRO1 162103Z 17010KT 19/05 A30 RMK A01 T01900053  RH  041%=      5-min Rain = 0
KRO1 162104Z 17012KT 19/05 A30 RMK A01 T01900053  RH  041%=      5-min Rain = 0
KRO1 162105Z 18010KT 19/05 A30 RMK A01 T01910052  RH  040%=      5-min Rain = 0
KRO1 162106Z 19012KT 19/05 A30 RMK A01 T01910051  RH  040%=      5-min Rain = 0
KRO1 162107Z 18011KT 19/05 A30 RMK A01 T01920049  RH  039%=      5-min Rain = 0
KRO1 162108Z 17012KT 19/05 A30 RMK A01 T01920050  RH  039%=      5-min Rain = 0
KRO1 162109Z 17013KT 19/05 A30 RMK A01 T01910051  RH  040%=      5-min Rain = 0
KRO1 162110Z 17013KT 19/05 A30 RMK A01 T01910052  RH  040%=      5-min Rain = 0
KRO1 162111Z 17011KT 19/05 A30 RMK A01 T01910051  RH  040%=      5-min Rain = 0
KRO1 162112Z 17010KT 19/05 A30 RMK A01 T01910052  RH  040%=      5-min Rain = 0
KRO1 162113Z 18010KT 19/05 A30 RMK A01 T01920050  RH  039%=      5-min Rain = 0
KRO1 162114Z 17012KT 19/05 A30 RMK A01 T01920051  RH  039%=      5-min Rain = 0
KRO1 162115Z 17011KT 19/05 A30 RMK A01 T01920050  RH  039%=      5-min Rain = 0
KRO1 162116Z 17012KT 19/05 A30 RMK A01 T01920050  RH  039%=      5-min Rain = 0
KRO1 162117Z 17014KT 19/05 A30 RMK A01 T01930051  RH  039%=      5-min Rain = 0
KRO1 162118Z 17010KT 19/05 A30 RMK A01 T01930051  RH  039%=      5-min Rain = 0
KRO1 162119Z 16010KT 19/05 A30 RMK A01 T01930051  RH  039%=      5-min Rain = 0
KRO1 162120Z 16009KT 19/05 A30 RMK A01 T01930052  RH  039%=      5-min Rain = 0
KRO1 162121Z 17009KT 19/05 A30 RMK A01 T01930053  RH  040%=      5-min Rain = 0
KRO1 162122Z 17008KT 19/05 A30 RMK A01 T01930053  RH  040%=      5-min Rain = 0
KRO1 162123Z 18008KT 19/05 A30 RMK A01 T01930054  RH  040%=      5-min Rain = 0
KRO1 162124Z 17008KT 19/05 A30 RMK A01 T01930053  RH  040%=      5-min Rain = 0
KRO1 162125Z 18009KT 19/05 A30 RMK A01 T01930053  RH  040%=      5-min Rain = 0
KRO1 162126Z 19010KT 19/05 A30 RMK A01 T01920053  RH  040%=      5-min Rain = 0
KRO1 162127Z 18009KT 19/05 A30 RMK A01 T01910052  RH  040%=      5-min Rain = 0
KRO1 162128Z 18008KT 19/05 A30 RMK A01 T01910053  RH  040%=      5-min Rain = 0
KRO1 162129Z 18009KT 19/05 A30 RMK A01 T01910052  RH  040%=      5-min Rain = 0
KRO1 162130Z 18008KT 19/05 A30 RMK A01 T01910051  RH  040%=      5-min Rain = 0
KRO1 162131Z 19006KT 19/05 A30 RMK A01 T01910051  RH  040%=      5-min Rain = 0
KRO1 162132Z 18007KT 19/05 A30 RMK A01 T01920053  RH  040%=      5-min Rain = 0
KRO1 162133Z 18009KT 19/05 A30 RMK A01 T01940052  RH  039%=      5-min Rain = 0
KRO1 162134Z 18006KT 20/05 A30 RMK A01 T01950053  RH  039%=      5-min Rain = 0
KRO1 162135Z 17007KT 20/05 A30 RMK A01 T01970054  RH  039%=      5-min Rain = 0
KRO1 162136Z 17008KT 20/05 A30 RMK A01 T01990053  RH  038%=      5-min Rain = 0
KRO1 162137Z 17007KT 20/05 A30 RMK A01 T01990051  RH  038%=      5-min Rain = 0
KRO1 162138Z 17007KT 20/05 A2999 RMK A01 T02000051  RH  038%=      5-min Rain = 0
KRO1 162139Z 17007KT 20/05 A2999 RMK A01 T02000052  RH  038%=      5-min Rain = 0
KRO1 162140Z 17008KT 20/05 A2999 RMK A01 T02000053  RH  038%=      5-min Rain = 0
KRO1 162141Z 19012G18KT 20/06 A2999 RMK A01 T02010055  RH  038%=      5-min Rain = 0
KRO1 162142Z 18011KT 20/06 A2999 RMK A01 T02020055  RH  038%=      5-min Rain = 0
KRO1 162143Z 18011KT 20/05 A2999 RMK A01 T02020053  RH  038%=      5-min Rain = 0
KRO1 162144Z 18012KT 20/05 A2999 RMK A01 T02030054  RH  038%=      5-min Rain = 0
KRO1 162145Z 18010KT 20/05 A2999 RMK A01 T02030054  RH  038%=      5-min Rain = 0
KRO1 162146Z 17008KT 20/05 A2999 RMK A01 T02020054  RH  038%=      5-min Rain = 0
KRO1 162147Z 16012KT 20/06 A2999 RMK A01 T02020055  RH  038%=      5-min Rain = 0
KRO1 162148Z 16011KT 20/05 A2999 RMK A01 T02010053  RH  038%=      5-min Rain = 0
KRO1 162149Z 16010KT 20/05 A2999 RMK A01 T02000054  RH  038%=      5-min Rain = 0
KRO1 162150Z 17011KT 20/06 A2999 RMK A01 T01990055  RH  039%=      5-min Rain = 0
KRO1 162151Z 16010KT 20/05 A2999 RMK A01 T01990054  RH  039%=      5-min Rain = 0
KRO1 162152Z 16009G14KT 20/06 A2999 RMK A01 T01990057  RH  039%=      5-min Rain = 0
KRO1 162153Z 16012KT 20/06 A2999 RMK A01 T02010057  RH  039%=      5-min Rain = 0
KRO1 162154Z 16014KT 20/06 A2999 RMK A01 T02010056  RH  039%=      5-min Rain = 0
KRO1 162155Z 17014KT 20/06 A2999 RMK A01 T02020055  RH  038%=      5-min Rain = 0
KRO1 162156Z 17012KT 20/05 A2999 RMK A01 T02010053  RH  038%=      5-min Rain = 0
KRO1 162157Z 18010KT 20/06 A2999 RMK A01 T02010055  RH  038%=      5-min Rain = 0
KRO1 162158Z 19013KT 20/05 A2999 RMK A01 T02030054  RH  038%=      5-min Rain = 0
KRO1 162159Z 19011KT 20/05 A2999 RMK A01 T02040053  RH  037%=      5-min Rain = 0
KRO1 162200Z 18011KT 20/05 A2999 RMK A01 T02040054  RH  038%=      5-min Rain = 0
KRO1 162201Z 18010KT 20/05 A2999 RMK A01 T02040054  RH  037%=      5-min Rain = 0
KRO1 162202Z 19011G16KT 20/05 A2998 RMK A01 T02040054  RH  037%=      5-min Rain = 0
KRO1 162203Z 18013KT 20/06 A2998 RMK A01 T02040056  RH  038%=      5-min Rain = 0
KRO1 162204Z 19011KT 20/06 A2998 RMK A01 T02040056  RH  038%=      5-min Rain = 0
KRO1 162205Z 20013KT 20/06 A2998 RMK A01 T02030056  RH  038%=      5-min Rain = 0
KRO1 162206Z 18013KT 20/06 A2998 RMK A01 T02030056  RH  038%=      5-min Rain = 0
KRO1 162207Z 19012KT 20/06 A2998 RMK A01 T02020056  RH  038%=      5-min Rain = 0
KRO1 162208Z 19011KT 20/06 A2998 RMK A01 T02010055  RH  039%=      5-min Rain = 0
KRO1 162209Z 18008KT 20/06 A2998 RMK A01 T02000057  RH  039%=      5-min Rain = 0
KRO1 162210Z 17012KT 20/06 A2998 RMK A01 T01990058  RH  040%=      5-min Rain = 0
KRO1 162211Z 17012KT 20/06 A2998 RMK A01 T01990058  RH  040%=      5-min Rain = 0
KRO1 162212Z 17012KT 20/06 A2998 RMK A01 T01980055  RH  039%=      5-min Rain = 0
KRO1 162213Z 17012KT 20/05 A2998 RMK A01 T01970054  RH  039%=      5-min Rain = 0
KRO1 162214Z 17011KT 20/05 A2998 RMK A01 T01970054  RH  039%=      5-min Rain = 0
KRO1 162215Z 17012KT 20/06 A2998 RMK A01 T01960055  RH  040%=      5-min Rain = 0
KRO1 162216Z 17014KT 20/05 A2998 RMK A01 T01960054  RH  040%=      5-min Rain = 0
KRO1 162217Z 17017KT 20/05 A2998 RMK A01 T01960052  RH  039%=      5-min Rain = 0
KRO1 162218Z 18015KT 20/05 A2998 RMK A01 T01960050  RH  038%=      5-min Rain = 0
KRO1 162219Z 19011KT 20/05 A2998 RMK A01 T01960051  RH  039%=      5-min Rain = 0
KRO1 162220Z 18010KT 20/05 A2998 RMK A01 T01960053  RH  039%=      5-min Rain = 0
KRO1 162221Z 18011KT 20/05 A2998 RMK A01 T01950052  RH  039%=      5-min Rain = 0
KRO1 162222Z 18011KT 19/05 A2998 RMK A01 T01940051  RH  039%=      5-min Rain = 0
KRO1 162223Z 18013KT 19/05 A2998 RMK A01 T01940051  RH  039%=      5-min Rain = 0
KRO1 162224Z 18014KT 19/05 A2998 RMK A01 T01940049  RH  038%=      5-min Rain = 0
KRO1 162225Z 18012KT 19/05 A2998 RMK A01 T01940048  RH  038%=      5-min Rain = 0
KRO1 162226Z 18013KT 19/05 A2998 RMK A01 T01940048  RH  038%=      5-min Rain = 0
KRO1 162227Z 19011KT 19/05 A2998 RMK A01 T01940048  RH  038%=      5-min Rain = 0
KRO1 162228Z 18010KT 19/05 A2998 RMK A01 T01930049  RH  039%=      5-min Rain = 0
KRO1 162229Z 18009KT 19/05 A2998 RMK A01 T01930051  RH  039%=      5-min Rain = 0
KRO1 162230Z 18013KT 19/05 A2998 RMK A01 T01920048  RH  039%=      5-min Rain = 0
KRO1 162231Z 18010KT 19/05 A2998 RMK A01 T01920047  RH  038%=      5-min Rain = 0
KRO1 162232Z 18011KT 19/05 A2998 RMK A01 T01930048  RH  038%=      5-min Rain = 0
KRO1 162233Z 18010KT 19/05 A2998 RMK A01 T01930048  RH  038%=      5-min Rain = 0
KRO1 162234Z 17010KT 19/05 A2998 RMK A01 T01930048  RH  039%=      5-min Rain = 0
KRO1 162235Z 18011KT 19/05 A2998 RMK A01 T01930048  RH  039%=      5-min Rain = 0
KRO1 162236Z 17011KT 19/05 A2998 RMK A01 T01930048  RH  039%=      5-min Rain = 0
KRO1 162237Z 18010KT 19/05 A2998 RMK A01 T01930049  RH  039%=      5-min Rain = 0
KRO1 162238Z 18013KT 19/05 A2998 RMK A01 T01930050  RH  039%=      5-min Rain = 0
KRO1 162239Z 17013KT 19/05 A2998 RMK A01 T01930051  RH  039%=      5-min Rain = 0
KRO1 162240Z 17013KT 19/05 A2998 RMK A01 T01920050  RH  039%=      5-min Rain = 0
KRO1 162241Z 17010KT 19/05 A2998 RMK A01 T01920051  RH  040%=      5-min Rain = 0
KRO1 162242Z 17011KT 19/05 A2998 RMK A01 T01910053  RH  040%=      5-min Rain = 0
KRO1 162243Z 17012KT 19/05 A2998 RMK A01 T01900053  RH  041%=      5-min Rain = 0
KRO1 162244Z 17014KT 19/05 A2998 RMK A01 T01890052  RH  040%=      5-min Rain = 0
KRO1 162245Z 16012KT 19/05 A2998 RMK A01 T01880052  RH  041%=      5-min Rain = 0
KRO1 162246Z 16012KT 19/05 A2998 RMK A01 T01880052  RH  041%=      5-min Rain = 0
KRO1 162247Z 16012KT 19/05 A2998 RMK A01 T01870052  RH  041%=      5-min Rain = 0
KRO1 162248Z 16013KT 19/05 A2998 RMK A01 T01870051  RH  041%=      5-min Rain = 0
KRO1 162249Z 16011KT 19/05 A2998 RMK A01 T01870051  RH  041%=      5-min Rain = 0
KRO1 162250Z 16011KT 19/05 A2998 RMK A01 T01860052  RH  041%=      5-min Rain = 0
KRO1 162251Z 16009KT 19/05 A2998 RMK A01 T01850054  RH  042%=      5-min Rain = 0
KRO1 162252Z 16010KT 18/05 A2998 RMK A01 T01840053  RH  042%=      5-min Rain = 0
KRO1 162253Z 16011KT 18/05 A2998 RMK A01 T01840052  RH  042%=      5-min Rain = 0
KRO1 162254Z 16010KT 18/05 A2998 RMK A01 T01840051  RH  042%=      5-min Rain = 0
KRO1 162255Z 15010KT 18/05 A2998 RMK A01 T01840052  RH  042%=      5-min Rain = 0
KRO1 162256Z 16010KT 18/05 A2998 RMK A01 T01840052  RH  042%=      5-min Rain = 0
KRO1 162257Z 16010KT 18/05 A2998 RMK A01 T01820052  RH  042%=      5-min Rain = 0
KRO1 162258Z 16010KT 18/05 A2998 RMK A01 T01820051  RH  042%=      5-min Rain = 0
KRO1 162259Z 16011KT 18/05 A2998 RMK A01 T01810051  RH  042%=      5-min Rain = 0
KRO1 162300Z 16010KT 18/05 A2998 RMK A01 T01810051  RH  042%=      5-min Rain = 0
KRO1 162301Z 16010KT 18/05 A2998 RMK A01 T01810051  RH  042%=      5-min Rain = 0
KRO1 162302Z 16009KT 18/05 A2998 RMK A01 T01810051  RH  042%=      5-min Rain = 0
KRO1 162303Z 16009KT 18/05 A2998 RMK A01 T01800050  RH  042%=      5-min Rain = 0
KRO1 162304Z 16009KT 18/05 A2998 RMK A01 T01800051  RH  042%=      5-min Rain = 0
KRO1 162305Z 16008KT 18/05 A2998 RMK A01 T01800051  RH  043%=      5-min Rain = 0
KRO1 162306Z 15008KT 18/05 A2998 RMK A01 T01780052  RH  043%=      5-min Rain = 0
KRO1 162307Z 15009KT 18/05 A2998 RMK A01 T01780052  RH  043%=      5-min Rain = 0
KRO1 162308Z 15009KT 18/05 A2998 RMK A01 T01770051  RH  044%=      5-min Rain = 0
KRO1 162309Z 15008KT 18/05 A2998 RMK A01 T01770052  RH  044%=      5-min Rain = 0
KRO1 162310Z 15007KT 18/05 A2998 RMK A01 T01760052  RH  044%=      5-min Rain = 0
KRO1 162311Z 15007KT 18/05 A2998 RMK A01 T01750052  RH  044%=      5-min Rain = 0
KRO1 162312Z 15007KT 17/05 A2998 RMK A01 T01740052  RH  044%=      5-min Rain = 0
KRO1 162313Z 15008KT 17/05 A2998 RMK A01 T01730051  RH  044%=      5-min Rain = 0
KRO1 162314Z 14007KT 17/05 A2998 RMK A01 T01730051  RH  044%=      5-min Rain = 0
KRO1 162315Z 14007KT 17/05 A2999 RMK A01 T01720050  RH  044%=      5-min Rain = 0
KRO1 162316Z 14007KT 17/05 A2999 RMK A01 T01720050  RH  045%=      5-min Rain = 0
KRO1 162317Z 14007KT 17/05 A2999 RMK A01 T01710050  RH  045%=      5-min Rain = 0
KRO1 162318Z 14006KT 17/05 A2999 RMK A01 T01700050  RH  045%=      5-min Rain = 0
KRO1 162319Z 14007KT 17/05 A2999 RMK A01 T01700050  RH  045%=      5-min Rain = 0
KRO1 162320Z 13007KT 17/05 A2999 RMK A01 T01690050  RH  045%=      5-min Rain = 0
KRO1 162321Z 14007KT 17/05 A2999 RMK A01 T01680050  RH  046%=      5-min Rain = 0
KRO1 162322Z 13007KT 17/05 A2999 RMK A01 T01680050  RH  046%=      5-min Rain = 0
KRO1 162323Z 13007KT 17/05 A2999 RMK A01 T01670051  RH  046%=      5-min Rain = 0
KRO1 162324Z 13006KT 17/05 A2999 RMK A01 T01660051  RH  046%=      5-min Rain = 0
KRO1 162325Z 13006KT 17/05 A2998 RMK A01 T01650051  RH  047%=      5-min Rain = 0
KRO1 162326Z 13006KT 16/05 A2998 RMK A01 T01640050  RH  047%=      5-min Rain = 0
KRO1 162327Z 13006KT 16/05 A2998 RMK A01 T01640050  RH  047%=      5-min Rain = 0
KRO1 162328Z 13006KT 16/05 A2998 RMK A01 T01630049  RH  047%=      5-min Rain = 0
KRO1 162329Z 13007KT 16/05 A2998 RMK A01 T01640050  RH  047%=      5-min Rain = 0
KRO1 162330Z 12007KT 16/05 A2998 RMK A01 T01630049  RH  047%=      5-min Rain = 0
KRO1 162331Z 12006KT 16/05 A2998 RMK A01 T01630049  RH  047%=      5-min Rain = 0
KRO1 162332Z 12006KT 16/05 A2998 RMK A01 T01620049  RH  047%=      5-min Rain = 0
KRO1 162333Z 12006KT 16/05 A2998 RMK A01 T01610049  RH  047%=      5-min Rain = 0
KRO1 162334Z 12006KT 16/05 A2998 RMK A01 T01610049  RH  047%=      5-min Rain = 0
KRO1 162335Z 12006KT 16/05 A2998 RMK A01 T01600049  RH  048%=      5-min Rain = 0
KRO1 162336Z 12006KT 16/05 A2998 RMK A01 T01600049  RH  048%=      5-min Rain = 0
KRO1 162337Z 11006KT 16/05 A2998 RMK A01 T01590049  RH  048%=      5-min Rain = 0
KRO1 162338Z 11006KT 16/05 A2998 RMK A01 T01580049  RH  048%=      5-min Rain = 0
KRO1 162339Z 12006KT 16/05 A2998 RMK A01 T01580049  RH  048%=      5-min Rain = 0
KRO1 162340Z 11006KT 16/05 A2998 RMK A01 T01570048  RH  048%=      5-min Rain = 0
KRO1 162341Z 12006KT 16/05 A2998 RMK A01 T01570048  RH  048%=      5-min Rain = 0
KRO1 162342Z 12007KT 16/05 A2998 RMK A01 T01560048  RH  049%=      5-min Rain = 0
KRO1 162343Z 12006KT 16/05 A2998 RMK A01 T01560048  RH  049%=      5-min Rain = 0
KRO1 162344Z 12006KT 16/05 A2999 RMK A01 T01560048  RH  049%=      5-min Rain = 0
KRO1 162345Z 12006KT 16/05 A2999 RMK A01 T01550048  RH  049%=      5-min Rain = 0
KRO1 162346Z 12007KT 15/05 A2999 RMK A01 T01540048  RH  049%=      5-min Rain = 0
KRO1 162347Z 12006KT 15/05 A2999 RMK A01 T01530048  RH  049%=      5-min Rain = 0
KRO1 162348Z 12006KT 15/05 A2999 RMK A01 T01530048  RH  050%=      5-min Rain = 0
KRO1 162349Z 12007KT 15/05 A2999 RMK A01 T01520048  RH  050%=      5-min Rain = 0
KRO1 162350Z 12007KT 15/05 A2999 RMK A01 T01520048  RH  050%=      5-min Rain = 0
KRO1 162351Z 12006KT 15/05 A2999 RMK A01 T01530048  RH  050%=      5-min Rain = 0
KRO1 162352Z 13006KT 15/05 A2999 RMK A01 T01530048  RH  050%=      5-min Rain = 0
KRO1 162353Z 13006KT 15/05 A2999 RMK A01 T01520049  RH  050%=      5-min Rain = 0
KRO1 162354Z 13007KT 15/05 A2999 RMK A01 T01500049  RH  051%=      5-min Rain = 0
KRO1 162355Z 13007KT 15/05 A2999 RMK A01 T01490049  RH  051%=      5-min Rain = 0
KRO1 162356Z 13006KT 15/05 A2999 RMK A01 T01480049  RH  051%=      5-min Rain = 0
KRO1 162357Z 13006KT 15/05 A2999 RMK A01 T01470050  RH  052%=      5-min Rain = 0
KRO1 162358Z 13006KT 15/05 A2999 RMK A01 T01450050  RH  053%=      5-min Rain = 0
KRO1 162359Z 13006KT 14/05 A2999 RMK A01 T01440050  RH  053%=      5-min Rain = 0
KRO1 170000Z 13006KT 14/05 A2999 RMK A01 T01430050  RH  054%=      5-min Rain = 0
KRO1 170001Z 13007KT 14/05 A2999 RMK A01 T01410050  RH  054%=      5-min Rain = 0
KRO1 170002Z 14007KT 14/05 A2999 RMK A01 T01400050  RH  054%=      5-min Rain = 0
KRO1 170003Z 13007KT 14/05 A2999 RMK A01 T01390050  RH  055%=      5-min Rain = 0
KRO1 170004Z 14007KT 14/05 A2999 RMK A01 T01380050  RH  055%=      5-min Rain = 0
KRO1 170005Z 14007KT 14/05 A2999 RMK A01 T01370050  RH  056%=      5-min Rain = 0
KRO1 170006Z 14007KT 14/05 A2999 RMK A01 T01370050  RH  056%=      5-min Rain = 0
KRO1 170007Z 14007KT 14/05 A2999 RMK A01 T01360050  RH  056%=      5-min Rain = 0
KRO1 170008Z 14007KT 14/05 A2999 RMK A01 T01360051  RH  056%=      5-min Rain = 0
KRO1 170009Z 14007KT 14/05 A2999 RMK A01 T01360051  RH  056%=      5-min Rain = 0
KRO1 170010Z 14007KT 14/05 A2999 RMK A01 T01360051  RH  057%=      5-min Rain = 0
KRO1 170011Z 14007KT 14/05 A2999 RMK A01 T01360051  RH  057%=      5-min Rain = 0
KRO1 170012Z 15007KT 14/05 A2999 RMK A01 T01360052  RH  057%=      5-min Rain = 0
KRO1 170013Z 15007KT 14/05 A2999 RMK A01 T01350052  RH  057%=      5-min Rain = 0
KRO1 170014Z 15006KT 14/05 A2999 RMK A01 T01350052  RH  057%=      5-min Rain = 0
KRO1 170015Z 16006KT 13/05 A2999 RMK A01 T01340052  RH  058%=      5-min Rain = 0
KRO1 170016Z 16006KT 13/05 A2999 RMK A01 T01340053  RH  058%=      5-min Rain = 0
KRO1 170017Z 16006KT 13/05 A2999 RMK A01 T01330053  RH  058%=      5-min Rain = 0
KRO1 170018Z 16007KT 13/05 A2999 RMK A01 T01330054  RH  059%=      5-min Rain = 0
KRO1 170019Z 16007KT 13/05 A2999 RMK A01 T01320054  RH  059%=      5-min Rain = 0
KRO1 170020Z 16006KT 13/05 A2999 RMK A01 T01320054  RH  059%=      5-min Rain = 0
KRO1 170021Z 16006KT 13/05 A2999 RMK A01 T01310054  RH  059%=      5-min Rain = 0
KRO1 170022Z 16006KT 13/06 A30 RMK A01 T01310055  RH  060%=      5-min Rain = 0
KRO1 170023Z 16007KT 13/06 A30 RMK A01 T01300055  RH  060%=      5-min Rain = 0
KRO1 170024Z 17007KT 13/06 A30 RMK A01 T01290055  RH  061%=      5-min Rain = 0
KRO1 170025Z 17007KT 13/06 A30 RMK A01 T01280055  RH  061%=      5-min Rain = 0
KRO1 170026Z 17006KT 13/06 A30 RMK A01 T01280056  RH  061%=      5-min Rain = 0
KRO1 170027Z 17007KT 13/06 A30 RMK A01 T01270055  RH  062%=      5-min Rain = 0
KRO1 170028Z 17007KT 13/06 A30 RMK A01 T01270055  RH  061%=      5-min Rain = 0
KRO1 170029Z 17007KT 13/06 A2999 RMK A01 T01270055  RH  061%=      5-min Rain = 0
KRO1 170030Z 17007KT 13/05 A2999 RMK A01 T01270054  RH  061%=      5-min Rain = 0
KRO1 170031Z 17007KT 13/05 A2999 RMK A01 T01270054  RH  061%=      5-min Rain = 0
KRO1 170032Z 17007KT 13/05 A2999 RMK A01 T01270054  RH  061%=      5-min Rain = 0
KRO1 170033Z 17007KT 13/05 A2999 RMK A01 T01270054  RH  061%=      5-min Rain = 0
KRO1 170034Z 17008KT 13/05 A2999 RMK A01 T01280054  RH  061%=      5-min Rain = 0
KRO1 170035Z 17008KT 13/05 A2999 RMK A01 T01280054  RH  061%=      5-min Rain = 0
KRO1 170036Z 17008KT 13/05 A2999 RMK A01 T01270054  RH  061%=      5-min Rain = 0
KRO1 170037Z 17008KT 13/05 A30 RMK A01 T01280054  RH  061%=      5-min Rain = 0
KRO1 170038Z 17008KT 13/05 A30 RMK A01 T01280053  RH  061%=      5-min Rain = 0
KRO1 170039Z 17008KT 13/05 A30 RMK A01 T01290054  RH  060%=      5-min Rain = 0
KRO1 170040Z 17008KT 13/05 A30 RMK A01 T01300053  RH  060%=      5-min Rain = 0
KRO1 170041Z 17008KT 13/05 A30 RMK A01 T01310053  RH  059%=      5-min Rain = 0
KRO1 170042Z 17008KT 13/05 A30 RMK A01 T01330053  RH  059%=      5-min Rain = 0
KRO1 170043Z 17008KT 14/05 A30 RMK A01 T01350054  RH  058%=      5-min Rain = 0
KRO1 170044Z 17008KT 14/05 A30 RMK A01 T01350054  RH  058%=      5-min Rain = 0
KRO1 170045Z 17008KT 14/05 A30 RMK A01 T01360054  RH  058%=      5-min Rain = 0
KRO1 170046Z 17008KT 14/05 A30 RMK A01 T01360054  RH  058%=      5-min Rain = 0
KRO1 170047Z 17008KT 14/05 A30 RMK A01 T01360054  RH  058%=      5-min Rain = 0
KRO1 170048Z 17008KT 14/05 A30 RMK A01 T01350054  RH  058%=      5-min Rain = 0
KRO1 170049Z 17008KT 14/05 A30 RMK A01 T01350054  RH  058%=      5-min Rain = 0
KRO1 170050Z 17008KT 13/05 A30 RMK A01 T01340054  RH  058%=      5-min Rain = 0
KRO1 170051Z 17008KT 13/05 A30 RMK A01 T01340054  RH  059%=      5-min Rain = 0
KRO1 170052Z 17008KT 13/05 A30 RMK A01 T01330054  RH  059%=      5-min Rain = 0
KRO1 170053Z 17008KT 13/06 A30 RMK A01 T01330055  RH  059%=      5-min Rain = 0
KRO1 170054Z 17008KT 13/05 A30 RMK A01 T01320054  RH  059%=      5-min Rain = 0
KRO1 170055Z 17008KT 13/06 A30 RMK A01 T01320055  RH  059%=      5-min Rain = 0
KRO1 170056Z 17008KT 13/06 A30 RMK A01 T01320055  RH  059%=      5-min Rain = 0
KRO1 170057Z 17008KT 13/05 A30 RMK A01 T01310054  RH  059%=      5-min Rain = 0
KRO1 170058Z 16008KT 13/06 A30 RMK A01 T01310055  RH  060%=      5-min Rain = 0
KRO1 170059Z 17009KT 13/05 A30 RMK A01 T01310054  RH  060%=      5-min Rain = 0
KRO1 170100Z 16009KT 13/05 A30 RMK A01 T01310054  RH  060%=      5-min Rain = 0
KRO1 170101Z 16009KT 13/05 A30 RMK A01 T01310054  RH  060%=      5-min Rain = 0
KRO1 170102Z 17009KT 13/05 A30 RMK A01 T01310054  RH  060%=      5-min Rain = 0
KRO1 170103Z 17009KT 13/05 A30 RMK A01 T01310053  RH  059%=      5-min Rain = 0
KRO1 170104Z 17009KT 13/05 A30 RMK A01 T01310053  RH  059%=      5-min Rain = 0
KRO1 170105Z 17008KT 13/05 A30 RMK A01 T01310053  RH  059%=      5-min Rain = 0
KRO1 170106Z 17008KT 13/05 A30 RMK A01 T01310053  RH  059%=      5-min Rain = 0
KRO1 170107Z 17008KT 13/05 A30 RMK A01 T01310053  RH  059%=      5-min Rain = 0
KRO1 170108Z 16008KT 13/05 A30 RMK A01 T01310053  RH  059%=      5-min Rain = 0
KRO1 170109Z 16008KT 13/05 A2999 RMK A01 T01320054  RH  059%=      5-min Rain = 0
KRO1 170110Z 16008KT 13/05 A2999 RMK A01 T01310053  RH  059%=      5-min Rain = 0
KRO1 170111Z 16008KT 13/05 A2999 RMK A01 T01310053  RH  059%=      5-min Rain = 0
KRO1 170112Z 16009KT 13/05 A2999 RMK A01 T01300053  RH  059%=      5-min Rain = 0
KRO1 170113Z 17008KT 13/05 A2999 RMK A01 T01300053  RH  060%=      5-min Rain = 0
KRO1 170114Z 16008KT 13/05 A2999 RMK A01 T01300053  RH  060%=      5-min Rain = 0
KRO1 170115Z 17008KT 13/05 A2999 RMK A01 T01290053  RH  060%=      5-min Rain = 0
KRO1 170116Z 17009KT 13/05 A2999 RMK A01 T01290053  RH  060%=      5-min Rain = 0
KRO1 170117Z 17009KT 13/05 A2999 RMK A01 T01290053  RH  060%=      5-min Rain = 0
KRO1 170118Z 17009KT 13/05 A2999 RMK A01 T01280053  RH  060%=      5-min Rain = 0
KRO1 170119Z 17008KT 13/05 A2999 RMK A01 T01270053  RH  061%=      5-min Rain = 0
KRO1 170120Z 17008KT 13/05 A2999 RMK A01 T01260053  RH  061%=      5-min Rain = 0
KRO1 170121Z 16009KT 13/05 A2999 RMK A01 T01260052  RH  061%=      5-min Rain = 0
KRO1 170122Z 16009KT 13/05 A2999 RMK A01 T01260053  RH  061%=      5-min Rain = 0
KRO1 170123Z 17008KT 13/05 A2999 RMK A01 T01250052  RH  061%=      5-min Rain = 0
KRO1 170124Z 16009KT 13/05 A2999 RMK A01 T01250052  RH  061%=      5-min Rain = 0
KRO1 170125Z 16008KT 12/05 A2999 RMK A01 T01240052  RH  061%=      5-min Rain = 0
KRO1 170126Z 16008KT 12/05 A2999 RMK A01 T01240052  RH  062%=      5-min Rain = 0
KRO1 170127Z 16008KT 12/05 A2999 RMK A01 T01230052  RH  062%=      5-min Rain = 0
KRO1 170128Z 16009KT 12/05 A2999 RMK A01 T01230052  RH  062%=      5-min Rain = 0
KRO1 170129Z 16008KT 12/05 A2999 RMK A01 T01220052  RH  062%=      5-min Rain = 0
KRO1 170130Z 16009KT 12/05 A2999 RMK A01 T01220052  RH  062%=      5-min Rain = 0
KRO1 170131Z 16009KT 12/05 A2999 RMK A01 T01230052  RH  062%=      5-min Rain = 0
KRO1 170132Z 17009KT 12/05 A2999 RMK A01 T01220052  RH  062%=      5-min Rain = 0
KRO1 170133Z 17008KT 12/05 A2999 RMK A01 T01220052  RH  063%=      5-min Rain = 0
KRO1 170134Z 17008KT 12/05 A30 RMK A01 T01210053  RH  063%=      5-min Rain = 0
KRO1 170135Z 17008KT 12/05 A2999 RMK A01 T01200052  RH  063%=      5-min Rain = 0
KRO1 170136Z 17008KT 12/05 A2999 RMK A01 T01200052  RH  063%=      5-min Rain = 0
KRO1 170137Z 17008KT 12/05 A2999 RMK A01 T01190052  RH  063%=      5-min Rain = 0
KRO1 170138Z 16008KT 12/05 A2999 RMK A01 T01190052  RH  064%=      5-min Rain = 0
KRO1 170139Z 16008KT 12/05 A2999 RMK A01 T01180052  RH  064%=      5-min Rain = 0
KRO1 170140Z 16008KT 12/05 A2999 RMK A01 T01180052  RH  064%=      5-min Rain = 0
KRO1 170141Z 16008KT 12/05 A2999 RMK A01 T01170052  RH  064%=      5-min Rain = 0
KRO1 170142Z 16008KT 12/05 A2999 RMK A01 T01170052  RH  064%=      5-min Rain = 0
KRO1 170143Z 16007KT 12/05 A2999 RMK A01 T01160052  RH  065%=      5-min Rain = 0
KRO1 170144Z 16007KT 12/05 A2999 RMK A01 T01150052  RH  065%=      5-min Rain = 0
KRO1 170145Z 17007KT 11/05 A2999 RMK A01 T01140052  RH  065%=      5-min Rain = 0
KRO1 170146Z 17007KT 11/05 A2999 RMK A01 T01130051  RH  066%=      5-min Rain = 0
KRO1 170147Z 17008KT 11/05 A2999 RMK A01 T01120051  RH  066%=      5-min Rain = 0
KRO1 170148Z 17008KT 11/05 A2999 RMK A01 T01110051  RH  066%=      5-min Rain = 0
KRO1 170149Z 17008KT 11/05 A2999 RMK A01 T01110051  RH  066%=      5-min Rain = 0
KRO1 170150Z 17008KT 11/05 A2999 RMK A01 T01100051  RH  067%=      5-min Rain = 0
KRO1 170151Z 17008KT 11/05 A2999 RMK A01 T01100051  RH  067%=      5-min Rain = 0
KRO1 170152Z 17008KT 11/05 A2999 RMK A01 T01090051  RH  067%=      5-min Rain = 0
KRO1 170153Z 17008KT 11/05 A2999 RMK A01 T01090051  RH  067%=      5-min Rain = 0
KRO1 170154Z 17008KT 11/05 A2999 RMK A01 T01090050  RH  067%=      5-min Rain = 0
KRO1 170155Z 17008KT 11/05 A2999 RMK A01 T01090050  RH  067%=      5-min Rain = 0
KRO1 170156Z 17008KT 11/05 A2999 RMK A01 T01090050  RH  067%=      5-min Rain = 0
KRO1 170157Z 17008KT 11/05 A2999 RMK A01 T01090050  RH  067%=      5-min Rain = 0
KRO1 170158Z 17008KT 11/05 A2999 RMK A01 T01090049  RH  067%=      5-min Rain = 0
KRO1 170159Z 17008KT 11/05 A2999 RMK A01 T01090049  RH  067%=      5-min Rain = 0
KRO1 170200Z 17007KT 11/05 A2999 RMK A01 T01090049  RH  066%=      5-min Rain = 0
KRO1 170201Z 17007KT 11/05 A2999 RMK A01 T01100049  RH  066%=      5-min Rain = 0
KRO1 170202Z 17007KT 11/05 A2999 RMK A01 T01100049  RH  066%=      5-min Rain = 0
KRO1 170203Z 17007KT 11/05 A2999 RMK A01 T01100049  RH  066%=      5-min Rain = 0
KRO1 170204Z 17007KT 11/05 A2999 RMK A01 T01100049  RH  066%=      5-min Rain = 0
KRO1 170205Z 17007KT 11/05 A2999 RMK A01 T01090048  RH  066%=      5-min Rain = 0
KRO1 170206Z 17008KT 11/05 A2999 RMK A01 T01100048  RH  066%=      5-min Rain = 0
KRO1 170207Z 17007KT 11/05 A2999 RMK A01 T01100048  RH  066%=      5-min Rain = 0
KRO1 170208Z 17007KT 11/05 A2999 RMK A01 T01100048  RH  066%=      5-min Rain = 0
KRO1 170209Z 17007KT 11/05 A2999 RMK A01 T01100048  RH  066%=      5-min Rain = 0
KRO1 170210Z 17007KT 11/05 A2999 RMK A01 T01100048  RH  066%=      5-min Rain = 0
KRO1 170211Z 17007KT 11/05 A2999 RMK A01 T01090048  RH  066%=      5-min Rain = 0
KRO1 170212Z 16007KT 11/05 A2999 RMK A01 T01090048  RH  066%=      5-min Rain = 0
KRO1 170213Z 16007KT 11/05 A2999 RMK A01 T01080048  RH  067%=      5-min Rain = 0
KRO1 170214Z 16007KT 11/05 A2999 RMK A01 T01060048  RH  067%=      5-min Rain = 0
KRO1 170215Z 16008KT 11/05 A2998 RMK A01 T01050048  RH  068%=      5-min Rain = 0
KRO1 170216Z 16008KT 10/05 A2998 RMK A01 T01040048  RH  068%=      5-min Rain = 0
KRO1 170217Z 16008KT 10/05 A2998 RMK A01 T01030048  RH  069%=      5-min Rain = 0
KRO1 170218Z 16008KT 10/05 A2998 RMK A01 T01030049  RH  069%=      5-min Rain = 0
KRO1 170219Z 16008KT 10/05 A2998 RMK A01 T01030049  RH  069%=      5-min Rain = 0
KRO1 170220Z 16008KT 10/05 A2998 RMK A01 T01030049  RH  069%=      5-min Rain = 0
KRO1 170221Z 17009KT 10/05 A2998 RMK A01 T01030049  RH  069%=      5-min Rain = 0
KRO1 170222Z 17009KT 10/05 A2998 RMK A01 T01040049  RH  069%=      5-min Rain = 0
KRO1 170223Z 17008KT 10/05 A2998 RMK A01 T01040049  RH  069%=      5-min Rain = 0
KRO1 170224Z 17009KT 11/05 A2998 RMK A01 T01050049  RH  068%=      5-min Rain = 0
KRO1 170225Z 17008KT 11/05 A2998 RMK A01 T01050049  RH  068%=      5-min Rain = 0
KRO1 170226Z 17008KT 11/05 A2998 RMK A01 T01050049  RH  068%=      5-min Rain = 0
KRO1 170227Z 17008KT 11/05 A2998 RMK A01 T01060049  RH  068%=      5-min Rain = 0
KRO1 170228Z 17008KT 11/05 A2998 RMK A01 T01050049  RH  068%=      5-min Rain = 0
KRO1 170229Z 17008KT 11/05 A2998 RMK A01 T01050049  RH  068%=      5-min Rain = 0
KRO1 170230Z 17007KT 11/05 A2998 RMK A01 T01050049  RH  068%=      5-min Rain = 0
KRO1 170231Z 17007KT 10/05 A2998 RMK A01 T01040049  RH  068%=      5-min Rain = 0
KRO1 170232Z 17007KT 10/05 A2998 RMK A01 T01040049  RH  068%=      5-min Rain = 0
KRO1 170233Z 17007KT 10/05 A2998 RMK A01 T01040049  RH  069%=      5-min Rain = 0
KRO1 170234Z 17007KT 10/05 A2998 RMK A01 T01040049  RH  069%=      5-min Rain = 0
KRO1 170235Z 17007KT 10/05 A2998 RMK A01 T01040049  RH  068%=      5-min Rain = 0
KRO1 170236Z 17007KT 10/05 A2998 RMK A01 T01040049  RH  069%=      5-min Rain = 0
KRO1 170237Z 17007KT 10/05 A2998 RMK A01 T01030048  RH  069%=      5-min Rain = 0
KRO1 170238Z 17007KT 10/05 A2998 RMK A01 T01030048  RH  069%=      5-min Rain = 0
KRO1 170239Z 17007KT 10/05 A2998 RMK A01 T01020048  RH  069%=      5-min Rain = 0
KRO1 170240Z 17007KT 10/05 A2998 RMK A01 T01020048  RH  069%=      5-min Rain = 0
KRO1 170241Z 17007KT 10/05 A2998 RMK A01 T01010047  RH  069%=      5-min Rain = 0
KRO1 170242Z 17007KT 10/05 A2998 RMK A01 T01010048  RH  069%=      5-min Rain = 0
KRO1 170243Z 16006KT 10/05 A2998 RMK A01 T01010047  RH  069%=      5-min Rain = 0
KRO1 170244Z 17006KT 10/05 A2998 RMK A01 T01000047  RH  070%=      5-min Rain = 0
KRO1 170245Z 17006KT 10/05 A2998 RMK A01 T01000048  RH  070%=      5-min Rain = 0
KRO1 170246Z 17006KT 10/05 A2998 RMK A01 T01000048  RH  070%=      5-min Rain = 0
KRO1 170247Z 17006KT 10/05 A2998 RMK A01 T00990048  RH  070%=      5-min Rain = 0
KRO1 170248Z 17006KT 10/05 A2998 RMK A01 T00990048  RH  071%=      5-min Rain = 0
KRO1 170249Z 17006KT 10/05 A2998 RMK A01 T00980048  RH  071%=      5-min Rain = 0
KRO1 170250Z 17006KT 10/05 A2998 RMK A01 T00980048  RH  071%=      5-min Rain = 0
KRO1 170251Z 17006KT 10/05 A2998 RMK A01 T00980048  RH  071%=      5-min Rain = 0
KRO1 170252Z 17006KT 10/05 A2998 RMK A01 T00970048  RH  071%=      5-min Rain = 0
KRO1 170253Z 17006KT 10/05 A2998 RMK A01 T00970047  RH  071%=      5-min Rain = 0
KRO1 170254Z 17006KT 10/05 A2998 RMK A01 T00970048  RH  071%=      5-min Rain = 0
KRO1 170255Z 17006KT 10/05 A2999 RMK A01 T00970047  RH  071%=      5-min Rain = 0
KRO1 170256Z 17007KT 10/05 A2999 RMK A01 T00960047  RH  071%=      5-min Rain = 0
KRO1 170257Z 17007KT 10/05 A2999 RMK A01 T00960047  RH  072%=      5-min Rain = 0
KRO1 170258Z 18006KT 10/05 A2999 RMK A01 T00960048  RH  072%=      5-min Rain = 0
KRO1 170259Z 18006KT 10/05 A2999 RMK A01 T00960048  RH  072%=      5-min Rain = 0
KRO1 170300Z 18006KT 10/05 A2999 RMK A01 T00960048  RH  072%=      5-min Rain = 0
KRO1 170301Z 18006KT 10/05 A2999 RMK A01 T00950047  RH  072%=      5-min Rain = 0
KRO1 170302Z 18006KT 10/05 A2999 RMK A01 T00950048  RH  072%=      5-min Rain = 0
KRO1 170303Z 18006KT 10/05 A2999 RMK A01 T00950048  RH  072%=      5-min Rain = 0
KRO1 170304Z 18006KT 10/05 A2999 RMK A01 T00950047  RH  072%=      5-min Rain = 0
KRO1 170305Z 18007KT 10/05 A2999 RMK A01 T00950047  RH  072%=      5-min Rain = 0
KRO1 170306Z 18006KT 10/05 A2999 RMK A01 T00950047  RH  072%=      5-min Rain = 0
KRO1 170307Z 18006KT 10/05 A2999 RMK A01 T00960047  RH  072%=      5-min Rain = 0
KRO1 170308Z 18006KT 10/05 A2999 RMK A01 T00970047  RH  071%=      5-min Rain = 0
KRO1 170309Z 17006KT 10/05 A2999 RMK A01 T00970047  RH  071%=      5-min Rain = 0
KRO1 170310Z 18007KT 10/05 A2999 RMK A01 T00980047  RH  071%=      5-min Rain = 0
KRO1 170311Z 18007KT 10/05 A2999 RMK A01 T00990047  RH  070%=      5-min Rain = 0
KRO1 170312Z 18007KT 10/05 A2999 RMK A01 T00990047  RH  070%=      5-min Rain = 0
KRO1 170313Z 18007KT 10/05 A2999 RMK A01 T01000047  RH  070%=      5-min Rain = 0
KRO1 170314Z 18007KT 10/05 A2999 RMK A01 T01000047  RH  070%=      5-min Rain = 0
KRO1 170315Z 17007KT 10/05 A2999 RMK A01 T01000047  RH  070%=      5-min Rain = 0
KRO1 170316Z 18007KT 10/05 A2999 RMK A01 T01010047  RH  069%=      5-min Rain = 0
KRO1 170317Z 18007KT 10/05 A2999 RMK A01 T01010047  RH  069%=      5-min Rain = 0
KRO1 170318Z 18007KT 10/05 A2999 RMK A01 T01010047  RH  069%=      5-min Rain = 0
KRO1 170319Z 18007KT 10/05 A2999 RMK A01 T01010047  RH  069%=      5-min Rain = 0
KRO1 170320Z 18007KT 10/05 A2999 RMK A01 T01010047  RH  069%=      5-min Rain = 0
KRO1 170321Z 18006KT 10/05 A2999 RMK A01 T01010046  RH  069%=      5-min Rain = 0
KRO1 170322Z 18006KT 10/05 A2999 RMK A01 T01010046  RH  069%=      5-min Rain = 0
KRO1 170323Z 18006KT 10/05 A2999 RMK A01 T01020046  RH  069%=      5-min Rain = 0
KRO1 170324Z 18007KT 10/05 A2999 RMK A01 T01010046  RH  069%=      5-min Rain = 0
KRO1 170325Z 18007KT 10/05 A2999 RMK A01 T01020046  RH  069%=      5-min Rain = 0
KRO1 170326Z 18008KT 10/05 A2999 RMK A01 T01010046  RH  068%=      5-min Rain = 0
KRO1 170327Z 18007KT 10/05 A2999 RMK A01 T01010045  RH  068%=      5-min Rain = 0
KRO1 170328Z 18007KT 10/05 A2999 RMK A01 T01020046  RH  068%=      5-min Rain = 0
KRO1 170329Z 18007KT 10/05 A2999 RMK A01 T01020045  RH  068%=      5-min Rain = 0
KRO1 170330Z 18008KT 10/05 A2999 RMK A01 T01020045  RH  068%=      5-min Rain = 0
KRO1 170331Z 18008KT 10/05 A2999 RMK A01 T01030045  RH  068%=      5-min Rain = 0
KRO1 170332Z 18008KT 10/05 A2999 RMK A01 T01030045  RH  067%=      5-min Rain = 0
KRO1 170333Z 18008KT 10/05 A2999 RMK A01 T01030045  RH  067%=      5-min Rain = 0
KRO1 170334Z 18007KT 10/05 A2999 RMK A01 T01030045  RH  067%=      5-min Rain = 0
KRO1 170335Z 18008KT 10/05 A2999 RMK A01 T01030045  RH  067%=      5-min Rain = 0
KRO1 170336Z 18008KT 10/05 A2999 RMK A01 T01030045  RH  067%=      5-min Rain = 0
KRO1 170337Z 18008KT 10/05 A2999 RMK A01 T01030045  RH  067%=      5-min Rain = 0
KRO1 170338Z 18008KT 10/04 A2999 RMK A01 T01030044  RH  067%=      5-min Rain = 0
KRO1 170339Z 18009KT 10/05 A2999 RMK A01 T01030045  RH  067%=      5-min Rain = 0
KRO1 170340Z 18009KT 10/05 A2999 RMK A01 T01030045  RH  067%=      5-min Rain = 0
KRO1 170341Z 18009KT 10/05 A2999 RMK A01 T01030045  RH  067%=      5-min Rain = 0
KRO1 170342Z 18008KT 10/05 A2999 RMK A01 T01030045  RH  067%=      5-min Rain = 0
KRO1 170343Z 17008KT 10/05 A2999 RMK A01 T01020045  RH  068%=      5-min Rain = 0
KRO1 170344Z 18009KT 10/05 A2999 RMK A01 T01010045  RH  068%=      5-min Rain = 0
KRO1 170345Z 17009KT 10/04 A2999 RMK A01 T01010044  RH  068%=      5-min Rain = 0
KRO1 170346Z 17009KT 10/05 A2999 RMK A01 T01010045  RH  068%=      5-min Rain = 0
KRO1 170347Z 17009KT 10/05 A2998 RMK A01 T01010045  RH  068%=      5-min Rain = 0
KRO1 170348Z 17009KT 10/05 A2998 RMK A01 T01000045  RH  068%=      5-min Rain = 0
KRO1 170349Z 17010KT 10/05 A2998 RMK A01 T01000045  RH  069%=      5-min Rain = 0
KRO1 170350Z 17010KT 10/05 A2998 RMK A01 T00990045  RH  069%=      5-min Rain = 0
KRO1 170351Z 17010KT 10/04 A2998 RMK A01 T00980044  RH  069%=      5-min Rain = 0
KRO1 170352Z 18010KT 10/04 A2998 RMK A01 T00980044  RH  069%=      5-min Rain = 0
KRO1 170353Z 18010KT 10/04 A2998 RMK A01 T00970044  RH  070%=      5-min Rain = 0
KRO1 170354Z 18009KT 10/04 A2998 RMK A01 T00960044  RH  070%=      5-min Rain = 0
KRO1 170355Z 18009KT 10/04 A2998 RMK A01 T00960044  RH  070%=      5-min Rain = 0
KRO1 170356Z 18009KT 10/04 A2998 RMK A01 T00950044  RH  070%=      5-min Rain = 0
KRO1 170357Z 18008KT 10/04 A2998 RMK A01 T00950044  RH  070%=      5-min Rain = 0
KRO1 170358Z 18007KT 10/04 A2998 RMK A01 T00950044  RH  070%=      5-min Rain = 0
KRO1 170359Z 18007KT 10/04 A2998 RMK A01 T00950043  RH  070%=      5-min Rain = 0
KRO1 170400Z 18006KT 09/04 A2998 RMK A01 T00940043  RH  070%=      5-min Rain = 0
KRO1 170401Z 18007KT 09/04 A2998 RMK A01 T00940043  RH  070%=      5-min Rain = 0
KRO1 170402Z 18006KT 09/04 A2998 RMK A01 T00940043  RH  070%=      5-min Rain = 0
KRO1 170403Z 18007KT 09/04 A2998 RMK A01 T00940043  RH  071%=      5-min Rain = 0
KRO1 170404Z 18006KT 09/04 A2998 RMK A01 T00940043  RH  070%=      5-min Rain = 0
KRO1 170405Z 18006KT 09/04 A2998 RMK A01 T00940042  RH  070%=      5-min Rain = 0
KRO1 170406Z 18007KT 10/04 A2998 RMK A01 T00950043  RH  070%=      5-min Rain = 0
KRO1 170407Z 18007KT 10/04 A2998 RMK A01 T00960043  RH  070%=      5-min Rain = 0
KRO1 170408Z 18007KT 10/04 A2998 RMK A01 T00960043  RH  069%=      5-min Rain = 0
KRO1 170409Z 18009KT 10/04 A2998 RMK A01 T00970043  RH  069%=      5-min Rain = 0
KRO1 170410Z 18008KT 10/04 A2998 RMK A01 T00990044  RH  068%=      5-min Rain = 0
KRO1 170411Z 18007KT 10/04 A2998 RMK A01 T01000044  RH  068%=      5-min Rain = 0
KRO1 170412Z 18008KT 10/04 A2998 RMK A01 T01010043  RH  067%=      5-min Rain = 0
KRO1 170413Z 18007KT 10/04 A2998 RMK A01 T01010043  RH  067%=      5-min Rain = 0
KRO1 170414Z 18008KT 10/04 A2998 RMK A01 T01010043  RH  067%=      5-min Rain = 0
KRO1 170415Z 18007KT 10/04 A2998 RMK A01 T01020043  RH  067%=      5-min Rain = 0
KRO1 170416Z 18008KT 10/04 A2998 RMK A01 T01020043  RH  067%=      5-min Rain = 0
KRO1 170417Z 18008KT 10/04 A2998 RMK A01 T01020043  RH  067%=      5-min Rain = 0
KRO1 170418Z 18009KT 10/04 A2998 RMK A01 T01020043  RH  067%=      5-min Rain = 0
KRO1 170419Z 18008KT 10/04 A2998 RMK A01 T01020043  RH  067%=      5-min Rain = 0
KRO1 170420Z 18007KT 10/04 A2998 RMK A01 T01020043  RH  067%=      5-min Rain = 0
KRO1 170421Z 18008KT 10/04 A2998 RMK A01 T01010043  RH  067%=      5-min Rain = 0
KRO1 170422Z 18007KT 10/04 A2998 RMK A01 T01000042  RH  067%=      5-min Rain = 0
KRO1 170423Z 18008KT 10/04 A2998 RMK A01 T00990042  RH  068%=      5-min Rain = 0
KRO1 170424Z 18008KT 10/04 A2998 RMK A01 T00990042  RH  068%=      5-min Rain = 0
KRO1 170425Z 18007KT 10/04 A2998 RMK A01 T00980042  RH  068%=      5-min Rain = 0
KRO1 170426Z 18007KT 10/04 A2998 RMK A01 T00970042  RH  068%=      5-min Rain = 0
KRO1 170427Z 18007KT 10/04 A2998 RMK A01 T00970042  RH  069%=      5-min Rain = 0
KRO1 170428Z 18007KT 10/04 A2998 RMK A01 T00960042  RH  069%=      5-min Rain = 0
KRO1 170429Z 18007KT 10/04 A2998 RMK A01 T00950042  RH  069%=      5-min Rain = 0
KRO1 170430Z 18006KT 10/04 A2998 RMK A01 T00950042  RH  069%=      5-min Rain = 0
KRO1 170431Z 18006KT 10/04 A2998 RMK A01 T00950042  RH  070%=      5-min Rain = 0
KRO1 170432Z 18006KT 09/04 A2998 RMK A01 T00940042  RH  070%=      5-min Rain = 0
KRO1 170433Z 18006KT 09/04 A2998 RMK A01 T00930042  RH  070%=      5-min Rain = 0
KRO1 170434Z 19006KT 09/04 A2998 RMK A01 T00930042  RH  070%=      5-min Rain = 0
KRO1 170435Z 19005KT 09/04 A2998 RMK A01 T00930041  RH  070%=      5-min Rain = 0
KRO1 170436Z 18005KT 09/04 A2998 RMK A01 T00920041  RH  070%=      5-min Rain = 0
KRO1 170437Z 19006KT 09/04 A2998 RMK A01 T00920041  RH  070%=      5-min Rain = 0
KRO1 170438Z 19006KT 09/04 A2998 RMK A01 T00910041  RH  071%=      5-min Rain = 0
KRO1 170439Z 19006KT 09/04 A2998 RMK A01 T00910041  RH  071%=      5-min Rain = 0
KRO1 170440Z 19006KT 09/04 A2998 RMK A01 T00910041  RH  071%=      5-min Rain = 0
KRO1 170441Z 19007KT 09/04 A2998 RMK A01 T00900041  RH  071%=      5-min Rain = 0
KRO1 170442Z 19007KT 09/04 A2998 RMK A01 T00910041  RH  071%=      5-min Rain = 0
KRO1 170443Z 19007KT 09/04 A2998 RMK A01 T00900041  RH  071%=      5-min Rain = 0
KRO1 170444Z 19007KT 09/04 A2998 RMK A01 T00900041  RH  071%=      5-min Rain = 0
KRO1 170445Z 19007KT 09/04 A2998 RMK A01 T00900041  RH  072%=      5-min Rain = 0
KRO1 170446Z 19007KT 09/04 A2998 RMK A01 T00890041  RH  072%=      5-min Rain = 0
KRO1 170447Z 20006KT 09/04 A2998 RMK A01 T00890041  RH  072%=      5-min Rain = 0
KRO1 170448Z 20007KT 09/04 A2998 RMK A01 T00890041  RH  072%=      5-min Rain = 0
KRO1 170449Z 20006KT 09/04 A2998 RMK A01 T00880041  RH  072%=      5-min Rain = 0
KRO1 170450Z 20006KT 09/04 A2998 RMK A01 T00880041  RH  073%=      5-min Rain = 0
KRO1 170451Z 20006KT 09/04 A2998 RMK A01 T00870041  RH  073%=      5-min Rain = 0
KRO1 170452Z 20006KT 09/04 A2998 RMK A01 T00870041  RH  073%=      5-min Rain = 0
KRO1 170453Z 20007KT 09/04 A2998 RMK A01 T00870041  RH  073%=      5-min Rain = 0
KRO1 170454Z 20006KT 09/04 A2998 RMK A01 T00870041  RH  073%=      5-min Rain = 0
KRO1 170455Z 20007KT 09/04 A2998 RMK A01 T00870041  RH  073%=      5-min Rain = 0
KRO1 170456Z 20006KT 09/04 A2998 RMK A01 T00870041  RH  073%=      5-min Rain = 0
KRO1 170457Z 20007KT 09/04 A2998 RMK A01 T00870041  RH  073%=      5-min Rain = 0
KRO1 170458Z 20007KT 09/04 A2998 RMK A01 T00870041  RH  073%=      5-min Rain = 0
KRO1 170459Z 20007KT 09/04 A2998 RMK A01 T00880041  RH  072%=      5-min Rain = 0
KRO1 170500Z 20007KT 09/04 A2998 RMK A01 T00880041  RH  072%=      5-min Rain = 0
KRO1 170501Z 20007KT 09/04 A2998 RMK A01 T00890042  RH  072%=      5-min Rain = 0
KRO1 170502Z 20007KT 09/04 A2998 RMK A01 T00910042  RH  071%=      5-min Rain = 0
KRO1 170503Z 20008KT 09/04 A2998 RMK A01 T00910041  RH  071%=      5-min Rain = 0
KRO1 170504Z 20007KT 09/04 A2998 RMK A01 T00930042  RH  071%=      5-min Rain = 0
KRO1 170505Z 19007KT 09/04 A2998 RMK A01 T00940042  RH  070%=      5-min Rain = 0
KRO1 170506Z 19008KT 09/04 A2998 RMK A01 T00940042  RH  070%=      5-min Rain = 0
KRO1 170507Z 20009KT 10/04 A2998 RMK A01 T00950042  RH  070%=      5-min Rain = 0
KRO1 170508Z 19008KT 10/04 A2998 RMK A01 T00960042  RH  069%=      5-min Rain = 0
KRO1 170509Z 19008KT 10/04 A2998 RMK A01 T00970042  RH  069%=      5-min Rain = 0
KRO1 170510Z 19008KT 10/04 A2998 RMK A01 T00970042  RH  068%=      5-min Rain = 0
KRO1 170511Z 19007KT 10/04 A2998 RMK A01 T00980042  RH  068%=      5-min Rain = 0
KRO1 170512Z 19008KT 10/04 A2998 RMK A01 T00980042  RH  068%=      5-min Rain = 0
KRO1 170513Z 19009KT 10/04 A2998 RMK A01 T00990042  RH  068%=      5-min Rain = 0
KRO1 170514Z 19008KT 10/04 A2998 RMK A01 T00990042  RH  068%=      5-min Rain = 0
KRO1 170515Z 19008KT 10/04 A2998 RMK A01 T01000042  RH  067%=      5-min Rain = 0
KRO1 170516Z 19009KT 10/04 A2998 RMK A01 T01000042  RH  067%=      5-min Rain = 0
KRO1 170517Z 19008KT 10/04 A2998 RMK A01 T01010042  RH  067%=      5-min Rain = 0
KRO1 170518Z 19008KT 10/04 A2998 RMK A01 T01010042  RH  067%=      5-min Rain = 0
KRO1 170519Z 20008KT 10/04 A2998 RMK A01 T01010042  RH  067%=      5-min Rain = 0
KRO1 170520Z 19008KT 10/04 A2998 RMK A01 T01010042  RH  067%=      5-min Rain = 0
KRO1 170521Z 20008KT 10/04 A2998 RMK A01 T01000042  RH  067%=      5-min Rain = 0
KRO1 170522Z 20007KT 10/04 A2998 RMK A01 T01010042  RH  067%=      5-min Rain = 0
KRO1 170523Z 20007KT 10/04 A2998 RMK A01 T01000042  RH  067%=      5-min Rain = 0
KRO1 170524Z 20007KT 10/04 A2998 RMK A01 T01000042  RH  067%=      5-min Rain = 0
KRO1 170525Z 20007KT 10/04 A2998 RMK A01 T00990042  RH  067%=      5-min Rain = 0
KRO1 170526Z 20007KT 10/04 A2998 RMK A01 T00980041  RH  068%=      5-min Rain = 0
KRO1 170527Z 20006KT 10/04 A2998 RMK A01 T00980042  RH  068%=      5-min Rain = 0
KRO1 170528Z 20006KT 10/04 A2997 RMK A01 T00970042  RH  068%=      5-min Rain = 0
KRO1 170529Z 20007KT 10/04 A2997 RMK A01 T00970042  RH  068%=      5-min Rain = 0
KRO1 170530Z 20006KT 10/04 A2997 RMK A01 T00970041  RH  068%=      5-min Rain = 0
KRO1 170531Z 20006KT 10/04 A2997 RMK A01 T00970041  RH  068%=      5-min Rain = 0
KRO1 170532Z 20006KT 10/04 A2997 RMK A01 T00960041  RH  069%=      5-min Rain = 0
KRO1 170533Z 20006KT 10/04 A2997 RMK A01 T00960041  RH  069%=      5-min Rain = 0
KRO1 170534Z 20007KT 10/04 A2997 RMK A01 T00960041  RH  069%=      5-min Rain = 0
KRO1 170535Z 20006KT 10/04 A2997 RMK A01 T00960042  RH  069%=      5-min Rain = 0
KRO1 170536Z 20006KT 10/04 A2997 RMK A01 T00960042  RH  069%=      5-min Rain = 0
KRO1 170537Z 20006KT 10/04 A2997 RMK A01 T00950041  RH  069%=      5-min Rain = 0
KRO1 170538Z 20006KT 10/04 A2997 RMK A01 T00950041  RH  069%=      5-min Rain = 0
KRO1 170539Z 20005KT 10/04 A2997 RMK A01 T00950041  RH  069%=      5-min Rain = 0
KRO1 170540Z 20005KT 10/04 A2997 RMK A01 T00950041  RH  069%=      5-min Rain = 0
KRO1 170541Z 20006KT 09/04 A2997 RMK A01 T00940041  RH  069%=      5-min Rain = 0
KRO1 170542Z 20005KT 10/04 A2997 RMK A01 T00950041  RH  069%=      5-min Rain = 0
KRO1 170543Z 20005KT 09/04 A2997 RMK A01 T00940041  RH  069%=      5-min Rain = 0
KRO1 170544Z 21005KT 09/04 A2997 RMK A01 T00930040  RH  069%=      5-min Rain = 0
KRO1 170545Z 21005KT 09/04 A2997 RMK A01 T00930040  RH  070%=      5-min Rain = 0
KRO1 170546Z 21005KT 09/04 A2997 RMK A01 T00920040  RH  070%=      5-min Rain = 0
KRO1 170547Z 21005KT 09/04 A2997 RMK A01 T00920041  RH  070%=      5-min Rain = 0
KRO1 170548Z 21004KT 09/04 A2997 RMK A01 T00920040  RH  070%=      5-min Rain = 0
KRO1 170549Z 22004KT 09/04 A2997 RMK A01 T00920040  RH  070%=      5-min Rain = 0
KRO1 170550Z 22005KT 09/04 A2997 RMK A01 T00920040  RH  070%=      5-min Rain = 0
KRO1 170551Z 21005KT 09/04 A2997 RMK A01 T00920040  RH  070%=      5-min Rain = 0
KRO1 170552Z 21005KT 09/04 A2997 RMK A01 T00920040  RH  070%=      5-min Rain = 0
KRO1 170553Z 22003KT 09/04 A2997 RMK A01 T00920040  RH  070%=      5-min Rain = 0
KRO1 170554Z 23003KT 09/04 A2997 RMK A01 T00910040  RH  070%=      5-min Rain = 0
KRO1 170555Z 23003KT 09/04 A2998 RMK A01 T00900039  RH  070%=      5-min Rain = 0
KRO1 170556Z 23004KT 09/04 A2998 RMK A01 T00900040  RH  071%=      5-min Rain = 0
KRO1 170557Z 23004KT 09/04 A2998 RMK A01 T00900039  RH  071%=      5-min Rain = 0
KRO1 170558Z 22004KT 09/04 A2998 RMK A01 T00890039  RH  071%=      5-min Rain = 0
KRO1 170559Z 22005KT 09/04 A2998 RMK A01 T00890039  RH  071%=      5-min Rain = 0

Page generated in 0.0714 seconds.